M I D A S
Marine Information and Data Acquisition System
Tripno 2089 of the Zeeleeuw from 2010-11-26 08:59:12 to 2010-11-26 16:08:00
Back to CruiseResearch ActivitiesStationsMapUnderway DataData graphs

EquipmentUnitsComment
TimeDGPSUTC
LatitudeDGPSDM.mWGS84
LongitudeDGPSDM.mWGS84
TemperatureSBE03/SBE38deg celciusITS90
ConductivitySBE21S/mITS90
SalinitySBE21 Practical Salinity Units
ChlorophylAChelsea fluorimeterg/lCalibrated in Aceton
Missing or incorrect values are displayed as -999
Sea surface data collected by the RV Zeeleeuw from 2010-11-26 07:58:40 to 2010-11-29 12:37:09
                                                                                    Next 1000 lines
Time Latitude Longitude Temperature Conductivity Salinity ChlorophylA
2010-11-26 07:58:51 51°13.662 2°55.959 13.0565 0.016277 0.09879 -0.408559
2010-11-26 07:58:55 51°13.662 2°55.959 13.0565 0.016277 0.09879 -0.408559
2010-11-26 07:59:00 51°13.662 2°55.959 13.0552 0.016277 0.098793 -0.408559
2010-11-26 07:59:06 51°13.661 2°55.959 13.0564 0.016277 0.098793 -0.408559
2010-11-26 07:59:11 51°13.661 2°55.959 13.0583 0.016277 0.098793 -0.408559
2010-11-26 07:59:15 51°13.661 2°55.959 13.0582 0.016277 0.098791 -0.443383
2010-11-26 07:59:21 51°13.661 2°55.959 13.0583 0.016173 0.098164 -0.408559
2010-11-26 07:59:26 51°13.661 2°55.959 13.0561 0.016173 0.098164 -0.408559
2010-11-26 07:59:31 51°13.661 2°55.959 13.0565 0.016277 0.098788 -0.373735
2010-11-26 07:59:35 51°13.661 2°55.959 13.057 0.016173 0.098164 -0.443383
2010-11-26 07:59:41 51°13.661 2°55.959 13.0619 0.016173 0.098161 -0.408559
2010-11-26 07:59:46 51°13.661 2°55.959 13.0623 0.016173 0.098161 -0.408559
2010-11-26 07:59:51 51°13.661 2°55.959 13.0587 0.016277 0.098785 -0.408559
2010-11-26 07:59:55 51°13.661 2°55.959 13.0571 0.016277 0.098785 -0.408559
2010-11-26 08:00:01 51°13.661 2°55.959 13.0619 0.016277 0.098783 -0.408559
2010-11-26 08:00:05 51°13.661 2°55.959 13.0601 0.016277 0.098783 -0.373735
2010-11-26 08:00:11 51°13.661 2°55.958 13.0611 0.016173 0.098158 -0.408559
2010-11-26 08:00:15 51°13.661 2°55.958 13.0622 0.016173 0.098158 -0.408559
2010-11-26 08:00:20 51°13.661 2°55.958 13.0606 0.016173 0.098156 -0.408559
2010-11-26 08:00:26 51°13.661 2°55.959 13.0601 0.016173 0.098156 -0.408559
2010-11-26 08:00:31 51°13.661 2°55.959 13.035 0.016173 0.098156 -0.443383
2010-11-26 08:00:35 51°13.662 2°55.959 13.0183 0.016173 0.098154 -0.408559
2010-11-26 08:00:40 51°13.662 2°55.958 12.9933 0.016173 0.098156 -0.408559
2010-11-26 08:00:46 51°13.663 2°55.956 12.978 0.016277 0.098781 -0.408559
2010-11-26 08:00:51 51°13.664 2°55.953 12.9595 0.016277 0.098785 -0.408559
2010-11-26 08:00:55 51°13.664 2°55.95 12.9749 0.016277 0.098785 -0.408559
2010-11-26 08:01:00 51°13.666 2°55.945 12.9947 0.016277 0.098783 -0.408559
2010-11-26 08:01:06 51°13.668 2°55.938 12.9798 0.016277 0.098783 -0.373735
2010-11-26 08:01:12 51°13.671 2°55.93 12.9943 0.016277 0.098785 -0.373735
2010-11-26 08:01:18 51°13.674 2°55.921 13.0088 0.016277 0.098785 -0.408559
2010-11-26 08:01:23 51°13.676 2°55.913 13.0121 0.016277 0.098786 -0.408559
2010-11-26 08:01:29 51°13.68 2°55.903 13.0157 0.016277 0.098786 -0.408559
2010-11-26 08:01:34 51°13.683 2°55.894 13.0202 0.016277 0.098788 -0.408559
2010-11-26 08:01:39 51°13.685 2°55.885 13.0244 0.016277 0.098783 -0.408559
2010-11-26 08:01:44 51°13.688 2°55.875 13.0251 0.016277 0.098788 -0.408559
2010-11-26 08:01:49 51°13.69 2°55.865 13.0264 0.016277 0.09879 -0.408559
2010-11-26 08:01:54 51°13.693 2°55.855 13.0241 0.016277 0.09879 -0.408559
2010-11-26 08:01:59 51°13.695 2°55.845 13.0288 0.016277 0.09879 -0.408559
2010-11-26 08:02:04 51°13.697 2°55.836 13.0281 0.016277 0.098791 -0.408559
2010-11-26 08:02:09 51°13.699 2°55.826 13.026 0.016277 0.098791 -0.443383
2010-11-26 08:02:14 51°13.701 2°55.816 13.0293 0.016277 0.09879 -0.408559
2010-11-26 08:02:19 51°13.702 2°55.807 13.0296 0.016277 0.098788 -0.373735
2010-11-26 08:02:24 51°13.704 2°55.798 13.0319 0.016277 0.098786 -0.408559
2010-11-26 08:02:29 51°13.705 2°55.79 13.0316 0.016277 0.098786 -0.408559
2010-11-26 08:02:34 51°13.706 2°55.781 13.0333 0.016277 0.098785 -0.408559
2010-11-26 08:02:39 51°13.707 2°55.773 13.0366 0.016277 0.098785 -0.408559
2010-11-26 08:02:44 51°13.708 2°55.765 13.0381 0.016277 0.098781 -0.408559
2010-11-26 08:02:49 51°13.709 2°55.758 13.0197 0.016277 0.098783 -0.408559
2010-11-26 08:02:54 51°13.709 2°55.751 13.0249 0.016277 0.098781 -0.408559
2010-11-26 08:02:58 51°13.709 2°55.746 13.0374 0.016277 0.098781 -0.408559
2010-11-26 08:03:03 51°13.71 2°55.74 13.0468 0.016277 0.09878 -0.408559
2010-11-26 08:03:08 51°13.71 2°55.735 13.0503 0.016277 0.09878 -0.408559
2010-11-26 08:03:13 51°13.71 2°55.732 13.0522 0.016277 0.09878 -0.408559
2010-11-26 08:03:18 51°13.711 2°55.729 13.0459 0.016173 0.098154 -0.443383
2010-11-26 08:03:23 51°13.711 2°55.727 13.0462 0.016277 0.098776 -0.408559
2010-11-26 08:03:27 51°13.712 2°55.725 13.0446 0.016277 0.098776 -0.408559
2010-11-26 08:03:32 51°13.713 2°55.724 13.0491 0.016173 0.098149 -0.373735
2010-11-26 08:03:37 51°13.714 2°55.722 13.0474 0.016173 0.098149 -0.443383
2010-11-26 08:03:42 51°13.715 2°55.72 13.0475 0.016277 0.098773 -0.373735
2010-11-26 08:03:47 51°13.716 2°55.719 13.0478 0.016277 0.098772 -0.443383
2010-11-26 08:03:51 51°13.717 2°55.718 13.0508 0.016277 0.09877 -0.408559
2010-11-26 08:03:56 51°13.718 2°55.717 13.0543 0.016277 0.09877 -0.408559
2010-11-26 08:04:01 51°13.719 2°55.715 13.0507 0.016277 0.09877 -0.408559
2010-11-26 08:04:06 51°13.721 2°55.714 13.0532 0.016277 0.098768 -0.408559
2010-11-26 08:04:11 51°13.723 2°55.712 13.0539 0.016277 0.09877 -0.373735
2010-11-26 08:04:16 51°13.725 2°55.711 13.0529 0.016173 0.098143 -0.408559
2010-11-26 08:04:21 51°13.727 2°55.71 13.0568 0.016277 0.098767 -0.408559
2010-11-26 08:04:26 51°13.729 2°55.708 13.0583 0.016277 0.098767 -0.408559
2010-11-26 08:04:31 51°13.731 2°55.706 13.0595 0.016277 0.098767 -0.373735
2010-11-26 08:04:36 51°13.734 2°55.704 13.0605 0.016173 0.09814 -0.408559
2010-11-26 08:04:41 51°13.737 2°55.702 13.0623 0.016173 0.098138 -0.408559
2010-11-26 08:04:46 51°13.74 2°55.699 13.066 0.016277 0.098762 -0.373735
2010-11-26 08:04:51 51°13.743 2°55.696 13.0719 0.016173 0.098135 -0.408559
2010-11-26 08:04:55 51°13.746 2°55.693 13.0707 0.016173 0.098135 -0.408559
2010-11-26 08:05:00 51°13.751 2°55.689 13.0711 0.016173 0.098135 -0.408559
2010-11-26 08:05:06 51°13.757 2°55.683 13.0582 0.016173 0.098135 -0.408559
2010-11-26 08:05:11 51°13.763 2°55.678 13.0601 0.016173 0.098135 -0.408559
2010-11-26 08:05:15 51°13.768 2°55.674 13.0512 0.016173 0.098135 -0.408559
2010-11-26 08:05:21 51°13.776 2°55.667 13.0323 0.016173 0.098135 -0.408559
2010-11-26 08:05:26 51°13.784 2°55.661 13.0384 0.016173 0.098135 -0.408559
2010-11-26 08:05:31 51°13.791 2°55.655 13.0359 0.016173 0.098135 -0.408559
2010-11-26 08:05:37 51°13.802 2°55.648 13.0317 0.016173 0.098133 -0.408559
2010-11-26 08:05:43 51°13.813 2°55.641 13.039 0.016173 0.098133 -0.408559
2010-11-26 08:05:47 51°13.821 2°55.636 13.0378 0.016173 0.098133 -0.408559
2010-11-26 08:05:53 51°13.833 2°55.628 13.0225 0.016173 0.098131 -0.408559
2010-11-26 08:05:58 51°13.844 2°55.621 13.0317 0.016173 0.098131 -0.408559
2010-11-26 08:06:03 51°13.855 2°55.614 13.0173 0.016173 0.098133 -0.408559
2010-11-26 08:06:07 51°13.865 2°55.608 12.9891 0.016173 0.098131 -0.408559
2010-11-26 08:06:12 51°13.877 2°55.601 13.0201 0.016173 0.098131 -0.373735
2010-11-26 08:06:17 51°13.889 2°55.593 13.0126 0.016173 0.098131 -0.408559
2010-11-26 08:06:22 51°13.902 2°55.586 13.0136 0.016173 0.09813 -0.408559
2010-11-26 08:06:27 51°13.915 2°55.577 12.9989 0.016173 0.09813 -0.408559
2010-11-26 08:06:31 51°13.925 2°55.571 12.9984 0.016173 0.09813 -0.408559
2010-11-26 08:06:36 51°13.938 2°55.562 12.9648 0.016173 0.098127 -0.408559
2010-11-26 08:06:42 51°13.954 2°55.551 12.9348 0.016173 0.098127 -0.408559
2010-11-26 08:06:47 51°13.967 2°55.543 12.9445 0.016173 0.098125 -0.408559
2010-11-26 08:06:51 51°13.978 2°55.536 12.953 0.016173 0.098125 -0.408559
2010-11-26 08:06:56 51°13.992 2°55.527 12.933 0.016173 0.098125 -0.408559
2010-11-26 08:07:01 51°14.005 2°55.519 12.9805 0.016277 0.098748 -0.408559
2010-11-26 08:07:06 51°14.018 2°55.51 12.9742 0.016173 0.098125 -0.408559
2010-11-26 08:07:11 51°14.031 2°55.501 12.9939 0.016173 0.098125 -0.408559
2010-11-26 08:07:15 51°14.042 2°55.494 12.9972 0.016173 0.098125 -0.408559
2010-11-26 08:07:21 51°14.058 2°55.482 12.9608 0.016173 0.098125 -0.373735
2010-11-26 08:07:26 51°14.071 2°55.473 13.0148 0.016173 0.098125 -0.373735
2010-11-26 08:07:31 51°14.085 2°55.463 13.0074 0.016173 0.098125 -0.408559
2010-11-26 08:07:35 51°14.095 2°55.455 12.9889 0.016173 0.098123 -0.373735
2010-11-26 08:07:40 51°14.108 2°55.444 13.0158 0.016173 0.098125 -0.408559
2010-11-26 08:07:45 51°14.121 2°55.434 13.0097 0.016173 0.098122 -0.408559
2010-11-26 08:07:51 51°14.137 2°55.421 13.0125 0.016173 0.098123 -0.408559
2010-11-26 08:07:55 51°14.147 2°55.412 12.97 0.016173 0.098123 -0.408559
2010-11-26 08:08:01 51°14.162 2°55.398 12.9771 0.016173 0.098122 -0.408559
2010-11-26 08:08:05 51°14.172 2°55.39 13.0272 0.016173 0.098122 -0.408559
2010-11-26 08:08:11 51°14.188 2°55.376 13.0132 0.016173 0.098122 -0.408559
2010-11-26 08:08:15 51°14.198 2°55.366 13.0038 0.016173 0.09812 -0.408559
2010-11-26 08:08:20 51°14.21 2°55.354 12.9787 0.016173 0.098122 -0.373735
2010-11-26 08:08:26 51°14.225 2°55.339 13.0126 0.016173 0.098122 -0.373735
2010-11-26 08:08:31 51°14.238 2°55.328 13.003 0.016173 0.098122 -0.373735
2010-11-26 08:08:35 51°14.247 2°55.318 12.9642 0.016173 0.098122 -0.443383
2010-11-26 08:08:40 51°14.26 2°55.306 12.9481 0.016173 0.09812 -0.408559
2010-11-26 08:08:46 51°14.275 2°55.292 12.9562 0.016173 0.098122 -0.408559
2010-11-26 08:08:51 51°14.288 2°55.28 13.0029 0.016277 0.098747 -0.408559
2010-11-26 08:08:55 51°14.298 2°55.27 13.0004 0.016277 0.098747 -0.408559
2010-11-26 08:09:01 51°14.313 2°55.256 12.9211 0.016173 0.098122 -0.408559
2010-11-26 08:09:06 51°14.326 2°55.244 12.9832 0.016173 0.098122 -0.443383
2010-11-26 08:09:11 51°14.339 2°55.233 12.9626 0.016277 0.098745 -0.408559
2010-11-26 08:09:15 51°14.349 2°55.224 12.9327 0.016173 0.098122 -0.408559
2010-11-26 08:09:21 51°14.364 2°55.209 13.0108 0.016173 0.098122 -0.408559
2010-11-26 08:09:26 51°14.377 2°55.198 12.9969 0.016173 0.098122 -0.408559
2010-11-26 08:09:31 51°14.391 2°55.185 12.8993 0.016173 0.098122 -0.408559
2010-11-26 08:09:35 51°14.401 2°55.175 12.9758 0.016173 0.098122 -0.408559
2010-11-26 08:09:40 51°14.415 2°55.163 12.9753 0.016173 0.098125 -0.408559
2010-11-26 08:09:46 51°14.431 2°55.148 12.9326 0.016173 0.098127 -0.408559
2010-11-26 08:09:51 51°14.444 2°55.135 12.8811 0.016173 0.098125 -0.408559
2010-11-26 08:09:55 51°14.455 2°55.124 12.9378 0.016173 0.098125 -0.408559
2010-11-26 08:10:00 51°14.468 2°55.111 12.9326 0.016277 0.098748 -0.408559
2010-11-26 08:10:05 51°14.482 2°55.097 12.9119 0.016173 0.098125 -0.443383
2010-11-26 08:10:11 51°14.498 2°55.079 12.9159 0.016277 0.098752 -0.408559
2010-11-26 08:10:15 51°14.508 2°55.067 12.9417 0.016173 0.098128 -0.408559
2010-11-26 08:10:20 51°14.522 2°55.052 12.8985 0.016173 0.098128 -0.408559
2010-11-26 08:10:25 51°14.535 2°55.036 12.8573 0.016173 0.098128 -0.408559
2010-11-26 08:10:31 51°14.552 2°55.016 12.8651 0.016173 0.098128 -0.408559
2010-11-26 08:10:35 51°14.562 2°55.003 12.9088 0.016173 0.098138 -0.373735
2010-11-26 08:10:40 51°14.577 2°54.987 12.9192 0.016173 0.098141 -0.373735
2010-11-26 08:10:45 51°14.59 2°54.97 12.8995 0.016173 0.098138 -0.408559
2010-11-26 08:10:51 51°14.607 2°54.948 12.9098 0.016277 0.098762 -0.408559
2010-11-26 08:10:55 51°14.617 2°54.933 12.9312 0.016277 0.098762 -0.408559
2010-11-26 08:11:01 51°14.633 2°54.911 12.9364 0.016173 0.098133 -0.408559
2010-11-26 08:11:06 51°14.645 2°54.89 12.8603 0.016173 0.098133 -0.443383
2010-11-26 08:11:11 51°14.658 2°54.869 12.8846 0.016173 0.098133 -0.408559
2010-11-26 08:11:15 51°14.668 2°54.852 12.8708 0.016173 0.098133 -0.408559
2010-11-26 08:11:21 51°14.683 2°54.828 12.8026 0.016173 0.098131 -0.408559
2010-11-26 08:11:26 51°14.696 2°54.807 12.8625 0.016173 0.098131 -0.408559
2010-11-26 08:11:31 51°14.709 2°54.788 12.8874 0.016173 0.09813 -0.443383
2010-11-26 08:11:35 51°14.719 2°54.773 12.8313 0.016277 0.09875 -0.408559
2010-11-26 08:11:41 51°14.735 2°54.749 12.8843 0.016173 0.09813 -0.373735
2010-11-26 08:11:46 51°14.748 2°54.729 12.842 0.016173 0.098133 -0.408559
2010-11-26 08:11:51 51°14.761 2°54.709 12.8836 0.016277 0.098757 -0.408559
2010-11-26 08:11:55 51°14.771 2°54.694 12.8476 0.016277 0.098757 -0.408559
2010-11-26 08:12:00 51°14.784 2°54.674 12.8886 0.016173 0.098136 -0.408559
2010-11-26 08:12:06 51°14.8 2°54.651 12.8876 0.016173 0.098136 -0.408559
2010-11-26 08:12:11 51°14.813 2°54.63 12.867 0.016173 0.098135 -0.408559
2010-11-26 08:12:15 51°14.823 2°54.615 12.8866 0.016173 0.098133 -0.408559
2010-11-26 08:12:21 51°14.838 2°54.591 12.9051 0.016173 0.098128 -0.408559
2010-11-26 08:12:26 51°14.851 2°54.571 12.8412 0.016173 0.098128 -0.408559
2010-11-26 08:12:31 51°14.864 2°54.551 12.8761 0.016173 0.098123 -0.408559
2010-11-26 08:12:35 51°14.875 2°54.535 12.8857 0.016173 0.098123 -0.408559
2010-11-26 08:12:40 51°14.888 2°54.514 12.8675 0.016173 0.098122 -0.408559
2010-11-26 08:12:45 51°14.901 2°54.494 12.8735 0.016173 0.098123 -0.443383
2010-11-26 08:12:51 51°14.917 2°54.471 12.8332 0.016173 0.098122 -0.408559
2010-11-26 08:12:55 51°14.928 2°54.455 12.868 0.016173 0.098122 -0.408559
2010-11-26 08:13:00 51°14.942 2°54.436 12.8516 0.016173 0.09812 -0.373735
2010-11-26 08:13:06 51°14.959 2°54.414 12.8952 0.016173 0.098114 -0.443383
2010-11-26 08:13:11 51°14.973 2°54.397 12.8449 0.016173 0.09811 -0.373735
2010-11-26 08:13:15 51°14.984 2°54.384 12.8672 0.016173 0.098118 -0.408559
2010-11-26 08:13:21 51°15.001 2°54.364 12.8441 0.016173 0.098125 -0.408559
2010-11-26 08:13:26 51°15.015 2°54.348 12.8659 0.016173 0.098125 -0.408559
2010-11-26 08:13:31 51°15.029 2°54.332 12.856 0.016173 0.098122 -0.408559
2010-11-26 08:13:35 51°15.04 2°54.318 12.8718 0.016173 0.098127 -0.408559
2010-11-26 08:13:41 51°15.058 2°54.298 12.8613 0.016173 0.098127 -0.408559
2010-11-26 08:13:46 51°15.072 2°54.281 12.8817 0.016173 0.098123 -0.443383
2010-11-26 08:13:51 51°15.086 2°54.264 12.8676 0.016173 0.098125 -0.408559
2010-11-26 08:13:55 51°15.098 2°54.251 12.8954 0.016173 0.098125 -0.408559
2010-11-26 08:14:00 51°15.112 2°54.233 12.8473 0.016173 0.098133 -0.373735
2010-11-26 08:14:06 51°15.13 2°54.213 12.8883 0.016173 0.09812 -0.408559
2010-11-26 08:14:11 51°15.145 2°54.196 12.895 0.016173 0.098122 -0.373735
2010-11-26 08:14:15 51°15.156 2°54.182 12.9173 0.016173 0.098123 -0.373735
2010-11-26 08:14:20 51°15.171 2°54.165 12.8641 0.016173 0.09812 -0.373735
2010-11-26 08:14:26 51°15.188 2°54.142 12.9095 0.016173 0.09812 -0.373735
2010-11-26 08:14:31 51°15.202 2°54.124 12.8742 0.016173 0.098128 -0.408559
2010-11-26 08:14:35 51°15.213 2°54.108 12.8813 0.016173 0.098125 -0.408559
2010-11-26 08:14:41 51°15.23 2°54.084 12.8804 0.016173 0.098127 -0.373735
2010-11-26 08:14:46 51°15.244 2°54.065 12.8714 0.016173 0.098118 -0.408559
2010-11-26 08:14:51 51°15.258 2°54.045 12.8698 0.016173 0.098118 -0.408559
2010-11-26 08:14:55 51°15.269 2°54.03 12.8896 0.016173 0.098118 -0.408559
2010-11-26 08:15:00 51°15.283 2°54.011 12.8812 0.016173 0.098118 -0.408559
2010-11-26 08:15:05 51°15.297 2°53.992 12.8836 0.016173 0.09812 -0.408559
2010-11-26 08:15:11 51°15.314 2°53.969 12.8998 0.016173 0.09812 -0.373735
2010-11-26 08:15:15 51°15.325 2°53.954 12.8889 0.016173 0.098118 -0.408559
2010-11-26 08:15:21 51°15.342 2°53.931 12.8956 0.016173 0.098122 -0.373735
2010-11-26 08:15:26 51°15.355 2°53.911 12.8851 0.016173 0.098122 -0.373735
2010-11-26 08:15:31 51°15.369 2°53.891 12.8914 0.016173 0.09812 -0.373735
2010-11-26 08:15:35 51°15.379 2°53.875 12.8895 0.016173 0.098115 -0.408559
2010-11-26 08:15:40 51°15.392 2°53.854 12.9008 0.016173 0.098114 -0.373735
2010-11-26 08:15:46 51°15.408 2°53.829 12.8566 0.016173 0.098122 -0.408559
2010-11-26 08:15:51 51°15.421 2°53.809 12.8814 0.016173 0.098138 -0.408559
2010-11-26 08:15:55 51°15.432 2°53.793 12.8799 0.016173 0.098138 -0.408559
2010-11-26 08:16:01 51°15.449 2°53.77 12.8797 0.016173 0.098145 -0.443383
2010-11-26 08:16:06 51°15.463 2°53.751 12.8649 0.016173 0.098148 -0.443383
2010-11-26 08:16:11 51°15.478 2°53.732 12.8812 0.016173 0.098145 -0.373735
2010-11-26 08:16:15 51°15.489 2°53.717 12.8717 0.016173 0.098146 -0.443383
2010-11-26 08:16:20 51°15.504 2°53.699 12.8549 0.016173 0.098143 -0.408559
2010-11-26 08:16:26 51°15.522 2°53.678 12.8531 0.016173 0.098143 -0.408559
2010-11-26 08:16:31 51°15.537 2°53.661 12.8469 0.016173 0.098145 -0.373735
2010-11-26 08:16:35 51°15.549 2°53.648 12.8793 0.016173 0.098143 -0.373735
2010-11-26 08:16:41 51°15.568 2°53.629 12.8741 0.016173 0.098141 -0.408559
2010-11-26 08:16:45 51°15.58 2°53.617 12.876 0.016173 0.09814 -0.443383
2010-11-26 08:16:51 51°15.6 2°53.6 12.8772 0.016173 0.098138 -0.408559
2010-11-26 08:16:55 51°15.613 2°53.589 12.8988 0.016173 0.098138 -0.408559
2010-11-26 08:17:00 51°15.63 2°53.577 12.8921 0.016173 0.098136 -0.408559
2010-11-26 08:17:05 51°15.646 2°53.564 12.8863 0.016173 0.098136 -0.408559
2010-11-26 08:17:11 51°15.666 2°53.552 12.8541 0.016173 0.098135 -0.408559
2010-11-26 08:17:15 51°15.679 2°53.542 12.8828 0.016173 0.098133 -0.373735
2010-11-26 08:17:21 51°15.699 2°53.53 12.8775 0.016173 0.098136 -0.373735
2010-11-26 08:17:26 51°15.716 2°53.519 12.866 0.016173 0.098136 -0.373735
2010-11-26 08:17:31 51°15.733 2°53.509 12.9022 0.016173 0.09813 -0.373735
2010-11-26 08:17:35 51°15.746 2°53.5 12.8786 0.016173 0.09813 -0.373735
2010-11-26 08:17:41 51°15.767 2°53.487 12.8959 0.016173 0.098128 -0.408559
2010-11-26 08:17:45 51°15.78 2°53.478 12.9015 0.016173 0.09813 -0.408559
2010-11-26 08:17:51 51°15.8 2°53.465 12.8761 0.016173 0.09813 -0.373735
2010-11-26 08:17:55 51°15.814 2°53.457 12.9167 0.016173 0.09813 -0.373735
2010-11-26 08:18:01 51°15.834 2°53.444 12.8905 0.016173 0.098133 -0.408559
2010-11-26 08:18:06 51°15.851 2°53.433 12.8875 0.016173 0.098133 -0.408559
2010-11-26 08:18:11 51°15.867 2°53.422 12.8954 0.016173 0.098136 -0.408559
2010-11-26 08:18:15 51°15.88 2°53.413 12.8985 0.016173 0.098135 -0.408559
2010-11-26 08:18:21 51°15.9 2°53.399 12.9009 0.016173 0.09814 -0.408559
2010-11-26 08:18:26 51°15.917 2°53.388 12.8861 0.016173 0.09814 -0.408559
2010-11-26 08:18:31 51°15.933 2°53.376 12.9188 0.016173 0.098141 -0.408559
2010-11-26 08:18:35 51°15.947 2°53.367 12.9073 0.016173 0.098141 -0.408559
2010-11-26 08:18:41 51°15.966 2°53.353 12.9195 0.016173 0.098149 -0.408559
2010-11-26 08:18:46 51°15.983 2°53.342 12.8829 0.016173 0.098146 -0.408559
2010-11-26 08:18:51 51°15.999 2°53.33 12.8982 0.016173 0.098146 -0.373735
2010-11-26 08:18:55 51°16.012 2°53.32 12.9124 0.016173 0.098146 -0.373735
2010-11-26 08:19:00 51°16.029 2°53.308 12.9065 0.016173 0.098145 -0.373735
2010-11-26 08:19:05 51°16.045 2°53.296 12.9125 0.016173 0.098148 -0.408559
2010-11-26 08:19:11 51°16.065 2°53.282 12.8935 0.016173 0.098148 -0.408559
2010-11-26 08:19:15 51°16.078 2°53.272 12.9152 0.016173 0.098148 -0.408559
2010-11-26 08:19:20 51°16.095 2°53.261 12.9154 0.016173 0.098148 -0.408559
2010-11-26 08:19:25 51°16.111 2°53.249 12.8957 0.016173 0.098148 -0.408559
2010-11-26 08:19:31 51°16.131 2°53.235 12.9131 0.016173 0.098148 -0.373735
2010-11-26 08:19:35 51°16.144 2°53.226 12.8963 0.016173 0.098148 -0.373735
2010-11-26 08:19:41 51°16.164 2°53.211 12.8909 0.016173 0.098149 -0.408559
2010-11-26 08:19:45 51°16.177 2°53.202 12.9075 0.016173 0.098148 -0.408559
2010-11-26 08:19:51 51°16.197 2°53.188 12.921 0.016173 0.098146 -0.408559
2010-11-26 08:19:55 51°16.211 2°53.179 12.9115 0.016173 0.098146 -0.408559
2010-11-26 08:20:00 51°16.227 2°53.168 12.9134 0.016173 0.09814 -0.408559
2010-11-26 08:20:05 51°16.244 2°53.156 12.9216 0.016173 0.098145 -0.408559
2010-11-26 08:20:11 51°16.263 2°53.142 12.9068 0.016173 0.098143 -0.443383
2010-11-26 08:20:15 51°16.277 2°53.133 12.9193 0.016173 0.098145 -0.443383
2010-11-26 08:20:21 51°16.296 2°53.119 12.8987 0.016173 0.098143 -0.408559
2010-11-26 08:20:26 51°16.313 2°53.107 12.9261 0.016173 0.098143 -0.408559
2010-11-26 08:20:31 51°16.329 2°53.096 12.9012 0.016173 0.098145 -0.408559
2010-11-26 08:20:35 51°16.343 2°53.087 12.9077 0.016173 0.098146 -0.408559
2010-11-26 08:20:41 51°16.363 2°53.073 12.9247 0.016173 0.098146 -0.408559
2010-11-26 08:20:46 51°16.379 2°53.06 12.9237 0.016173 0.098149 -0.408559
2010-11-26 08:20:51 51°16.396 2°53.049 12.9037 0.016173 0.098146 -0.373735
2010-11-26 08:20:55 51°16.409 2°53.039 12.9126 0.016173 0.098146 -0.373735
2010-11-26 08:21:00 51°16.425 2°53.027 12.915 0.016173 0.098153 -0.408559
2010-11-26 08:21:05 51°16.442 2°53.016 12.9151 0.016173 0.098148 -0.408559
2010-11-26 08:21:11 51°16.462 2°53.002 12.9349 0.016173 0.098145 -0.408559
2010-11-26 08:21:15 51°16.475 2°52.992 12.9193 0.016173 0.098141 -0.443383
2010-11-26 08:21:21 51°16.495 2°52.979 12.9305 0.016173 0.09814 -0.408559
2010-11-26 08:21:26 51°16.512 2°52.967 12.9396 0.016173 0.09814 -0.408559
2010-11-26 08:21:31 51°16.528 2°52.956 12.9293 0.016173 0.098136 -0.373735
2010-11-26 08:21:35 51°16.542 2°52.946 12.9179 0.016173 0.098136 -0.443383
2010-11-26 08:21:40 51°16.558 2°52.935 12.9226 0.016173 0.098128 -0.408559
2010-11-26 08:21:45 51°16.575 2°52.923 12.9276 0.016173 0.098128 -0.408559
2010-11-26 08:21:51 51°16.595 2°52.909 12.9325 0.016173 0.098131 -0.408559
2010-11-26 08:21:55 51°16.608 2°52.9 12.9165 0.016173 0.098131 -0.408559
2010-11-26 08:22:00 51°16.625 2°52.889 12.9384 0.016173 0.098127 -0.408559
2010-11-26 08:22:06 51°16.645 2°52.875 12.9301 0.016173 0.09812 -0.408559
2010-11-26 08:22:11 51°16.662 2°52.864 12.9349 0.016173 0.098122 -0.408559
2010-11-26 08:22:15 51°16.675 2°52.854 12.9351 0.016173 0.098123 -0.408559
2010-11-26 08:22:21 51°16.695 2°52.84 12.9281 0.016173 0.098127 -0.408559
2010-11-26 08:22:25 51°16.708 2°52.831 12.9456 0.016173 0.098127 -0.408559
2010-11-26 08:22:31 51°16.728 2°52.817 12.9319 0.016173 0.098125 -0.408559
2010-11-26 08:22:35 51°16.741 2°52.808 12.9308 0.016173 0.098125 -0.408559
2010-11-26 08:22:40 51°16.757 2°52.797 12.953 0.016173 0.098123 -0.408559
2010-11-26 08:22:46 51°16.776 2°52.784 12.9478 0.016173 0.098127 -0.408559
2010-11-26 08:22:51 51°16.793 2°52.773 12.9328 0.016173 0.098117 -0.373735
2010-11-26 08:22:55 51°16.806 2°52.763 12.9424 0.016173 0.098117 -0.373735
2010-11-26 08:23:01 51°16.825 2°52.75 12.9448 0.016173 0.09811 -0.443383
2010-11-26 08:23:06 51°16.841 2°52.739 12.9306 0.016173 0.09811 -0.408559
2010-11-26 08:23:11 51°16.857 2°52.727 12.9379 0.016173 0.098115 -0.408559
2010-11-26 08:23:15 51°16.87 2°52.718 12.9466 0.016173 0.098114 -0.408559
2010-11-26 08:23:20 51°16.887 2°52.707 12.9461 0.016173 0.098114 -0.408559
2010-11-26 08:23:26 51°16.906 2°52.693 12.9505 0.016173 0.098114 -0.408559
2010-11-26 08:23:31 51°16.922 2°52.682 12.9242 0.016173 0.098118 -0.408559
2010-11-26 08:23:35 51°16.935 2°52.673 12.9265 0.016173 0.098122 -0.408559
2010-11-26 08:23:40 51°16.952 2°52.662 12.9503 0.016173 0.09812 -0.408559
2010-11-26 08:23:45 51°16.969 2°52.653 12.9361 0.016173 0.098118 -0.408559
2010-11-26 08:23:51 51°16.989 2°52.643 12.9541 0.016173 0.098114 -0.443383
2010-11-26 08:23:55 51°17.003 2°52.637 12.9511 0.016173 0.098114 -0.443383
2010-11-26 08:24:00 51°17.02 2°52.629 12.9556 0.016173 0.098097 -0.408559
2010-11-26 08:24:05 51°17.037 2°52.624 12.9468 0.016173 0.098082 -0.408559
2010-11-26 08:24:11 51°17.058 2°52.617 12.9622 0.016173 0.098073 -0.408559
2010-11-26 08:24:15 51°17.072 2°52.614 12.9473 0.016173 0.098066 -0.408559
2010-11-26 08:24:21 51°17.093 2°52.608 12.9549 0.016173 0.098066 -0.443383
2010-11-26 08:24:25 51°17.106 2°52.608 12.9501 0.016173 0.098066 -0.443383
2010-11-26 08:24:31 51°17.127 2°52.604 12.9592 0.016173 0.098066 -0.408559
2010-11-26 08:24:35 51°17.141 2°52.603 12.9553 0.016173 0.098065 -0.408559
2010-11-26 08:24:41 51°17.162 2°52.601 12.9713 0.016173 0.098065 -0.408559
2010-11-26 08:24:45 51°17.176 2°52.601 12.9676 0.016173 0.098065 -0.408559
2010-11-26 08:24:51 51°17.197 2°52.6 12.9701 0.016173 0.098073 -0.408559
2010-11-26 08:24:55 51°17.211 2°52.599 12.9624 0.016173 0.098073 -0.408559
2010-11-26 08:25:01 51°17.232 2°52.599 12.9747 0.016173 0.098081 -0.408559
2010-11-26 08:25:06 51°17.25 2°52.598 12.9781 0.016173 0.098089 -0.443383
2010-11-26 08:25:11 51°17.268 2°52.597 12.9768 0.016173 0.098096 -0.408559
2010-11-26 08:25:15 51°17.282 2°52.596 12.9828 0.016173 0.098102 -0.408559
2010-11-26 08:25:21 51°17.302 2°52.596 12.9836 0.016173 0.098105 -0.408559
2010-11-26 08:25:26 51°17.32 2°52.595 12.9633 0.016173 0.098105 -0.408559
2010-11-26 08:25:31 51°17.337 2°52.594 12.9963 0.016173 0.098123 -0.408559
2010-11-26 08:25:35 51°17.352 2°52.592 12.9944 0.016173 0.098117 -0.408559
2010-11-26 08:25:40 51°17.369 2°52.59 12.9864 0.016173 0.098122 -0.443383
2010-11-26 08:25:46 51°17.39 2°52.588 12.9851 0.016173 0.098099 -0.408559
2010-11-26 08:25:51 51°17.407 2°52.584 12.9831 0.016173 0.098074 -0.408559
2010-11-26 08:25:55 51°17.421 2°52.579 12.9823 0.016173 0.098074 -0.408559
2010-11-26 08:26:00 51°17.438 2°52.575 12.9774 0.016173 0.098068 -0.408559
2010-11-26 08:26:05 51°17.455 2°52.568 12.9359 0.016173 0.098071 -0.408559
2010-11-26 08:26:11 51°17.476 2°52.561 13.1075 0.016173 0.098079 -0.408559
2010-11-26 08:26:15 51°17.489 2°52.553 13.3544 0.016173 0.098096 -0.408559
2010-11-26 08:26:20 51°17.506 2°52.545 13.1851 0.016173 0.098097 -0.408559
2010-11-26 08:26:25 51°17.523 2°52.536 12.9983 0.016173 0.098097 -0.408559
2010-11-26 08:26:31 51°17.543 2°52.523 13.003 0.016173 0.098097 -0.443383
2010-11-26 08:26:35 51°17.557 2°52.515 13.0011 0.016173 0.0981 -0.373735
2010-11-26 08:26:40 51°17.573 2°52.504 13.0041 0.016173 0.098107 -0.408559
2010-11-26 08:26:46 51°17.593 2°52.489 13.0254 0.016173 0.098112 -0.373735
2010-11-26 08:26:51 51°17.609 2°52.476 13.0222 0.016173 0.098112 -0.408559
2010-11-26 08:26:55 51°17.622 2°52.466 13.0295 0.016173 0.098112 -0.408559
2010-11-26 08:27:01 51°17.641 2°52.449 13.0312 0.016173 0.09811 -0.408559
2010-11-26 08:27:06 51°17.657 2°52.435 13.04 0.016173 0.098117 -0.443383
2010-11-26 08:27:11 51°17.673 2°52.421 13.0387 0.016173 0.09812 -0.373735
2010-11-26 08:27:15 51°17.685 2°52.409 13.0416 0.016173 0.098122 -0.408559
2010-11-26 08:27:20 51°17.701 2°52.394 13.0542 0.016173 0.098118 -0.408559
2010-11-26 08:27:25 51°17.716 2°52.379 13.0573 0.016173 0.098118 -0.408559
2010-11-26 08:27:31 51°17.735 2°52.361 13.0674 0.016173 0.098122 -0.408559
2010-11-26 08:27:35 51°17.747 2°52.349 13.0681 0.016173 0.09812 -0.373735
2010-11-26 08:27:40 51°17.763 2°52.334 13.0677 0.016173 0.098122 -0.408559
2010-11-26 08:27:46 51°17.782 2°52.317 13.0733 0.016173 0.098127 -0.408559
2010-11-26 08:27:51 51°17.797 2°52.302 13.0732 0.016173 0.098122 -0.408559
2010-11-26 08:27:55 51°17.81 2°52.291 13.0683 0.016173 0.098122 -0.408559
2010-11-26 08:28:01 51°17.829 2°52.274 13.0844 0.016173 0.098122 -0.408559
2010-11-26 08:28:06 51°17.845 2°52.259 13.0833 0.016173 0.098122 -0.408559
2010-11-26 08:28:11 51°17.861 2°52.244 13.0955 0.016173 0.098122 -0.408559
2010-11-26 08:28:15 51°17.874 2°52.232 13.0839 0.016173 0.098118 -0.408559
2010-11-26 08:28:20 51°17.89 2°52.218 13.0888 0.016173 0.098122 -0.408559
2010-11-26 08:28:25 51°17.906 2°52.204 13.0973 0.016173 0.098122 -0.408559
2010-11-26 08:28:31 51°17.925 2°52.187 13.1043 0.016173 0.098118 -0.408559
2010-11-26 08:28:35 51°17.937 2°52.175 13.1004 0.016173 0.098118 -0.408559
2010-11-26 08:28:40 51°17.953 2°52.161 13.1133 0.016173 0.098117 -0.408559
2010-11-26 08:28:46 51°17.972 2°52.143 13.1035 0.016173 0.098117 -0.373735
2010-11-26 08:28:51 51°17.988 2°52.129 13.1167 0.016173 0.098112 -0.408559
2010-11-26 08:28:55 51°18.001 2°52.117 13.1204 0.016173 0.098112 -0.408559
2010-11-26 08:29:01 51°18.019 2°52.101 13.1288 0.016173 0.09811 -0.408559
2010-11-26 08:29:05 51°18.032 2°52.089 13.1338 0.016173 0.098115 -0.408559
2010-11-26 08:29:11 51°18.051 2°52.072 13.1431 0.016173 0.09811 -0.373735
2010-11-26 08:29:15 51°18.063 2°52.06 13.1337 0.016173 0.098104 -0.408559
2010-11-26 08:29:21 51°18.082 2°52.043 13.1345 0.016173 0.098102 -0.443383
2010-11-26 08:29:25 51°18.094 2°52.031 13.1342 0.016173 0.098102 -0.443383
2010-11-26 08:29:31 51°18.113 2°52.014 13.1437 0.016173 0.098097 -0.443383
2010-11-26 08:29:35 51°18.126 2°52.002 13.1427 0.016173 0.098102 -0.443383
2010-11-26 08:29:41 51°18.144 2°51.985 13.1541 0.016173 0.098097 -0.443383
2010-11-26 08:29:46 51°18.16 2°51.97 13.1479 0.016173 0.098096 -0.373735
2010-11-26 08:29:51 51°18.176 2°51.956 13.152 0.016173 0.098094 -0.373735
2010-11-26 08:29:55 51°18.188 2°51.945 13.1544 0.016173 0.098094 -0.373735
2010-11-26 08:30:00 51°18.204 2°51.931 13.1595 0.016173 0.098089 -0.408559
2010-11-26 08:30:06 51°18.223 2°51.914 13.1564 0.016069 0.097464 -0.408559
2010-11-26 08:30:11 51°18.238 2°51.899 13.159 0.016173 0.098092 -0.408559
2010-11-26 08:30:15 51°18.251 2°51.888 13.1644 0.016173 0.098091 -0.373735
2010-11-26 08:30:20 51°18.267 2°51.874 13.1638 0.016173 0.098089 -0.443383
2010-11-26 08:30:25 51°18.283 2°51.86 13.1682 0.016173 0.098089 -0.443383
2010-11-26 08:30:31 51°18.302 2°51.843 13.1739 0.016173 0.098087 -0.373735
2010-11-26 08:30:35 51°18.315 2°51.831 13.1727 0.016173 0.098089 -0.408559
2010-11-26 08:30:40 51°18.33 2°51.818 13.1738 0.016173 0.098089 -0.408559
2010-11-26 08:30:45 51°18.346 2°51.803 13.1839 0.016173 0.098087 -0.373735
2010-11-26 08:30:51 51°18.365 2°51.786 13.1809 0.016173 0.098084 -0.443383
2010-11-26 08:30:55 51°18.378 2°51.775 13.1914 0.016173 0.098084 -0.443383
2010-11-26 08:31:01 51°18.397 2°51.758 13.1864 0.016173 0.098084 -0.408559
2010-11-26 08:31:06 51°18.413 2°51.744 13.201 0.016173 0.098084 -0.408559
2010-11-26 08:31:11 51°18.429 2°51.729 13.1923 0.016173 0.098087 -0.373735
2010-11-26 08:31:15 51°18.442 2°51.718 13.2084 0.016173 0.098082 -0.373735
2010-11-26 08:31:21 51°18.461 2°51.701 13.2027 0.016173 0.098082 -0.408559
2010-11-26 08:31:25 51°18.474 2°51.69 13.2067 0.016173 0.098082 -0.408559
2010-11-26 08:31:31 51°18.493 2°51.673 13.2079 0.016173 0.098079 -0.373735
2010-11-26 08:31:35 51°18.506 2°51.662 13.2091 0.016173 0.098079 -0.443383
2010-11-26 08:31:41 51°18.525 2°51.645 13.2127 0.016173 0.098078 -0.408559
2010-11-26 08:31:46 51°18.541 2°51.631 13.2109 0.016173 0.098079 -0.373735
2010-11-26 08:31:51 51°18.557 2°51.616 13.2168 0.016069 0.097453 -0.373735
2010-11-26 08:31:55 51°18.57 2°51.605 13.2195 0.016069 0.097453 -0.373735
2010-11-26 08:32:00 51°18.586 2°51.591 13.2224 0.016173 0.098079 -0.408559
2010-11-26 08:32:06 51°18.605 2°51.573 13.2222 0.016173 0.098078 -0.373735
2010-11-26 08:32:11 51°18.621 2°51.559 13.2252 0.016173 0.098079 -0.408559
2010-11-26 08:32:15 51°18.634 2°51.548 13.2289 0.016173 0.098079 -0.408559
2010-11-26 08:32:21 51°18.653 2°51.531 13.2323 0.016069 0.09745 -0.408559
2010-11-26 08:32:25 51°18.666 2°51.519 13.2375 0.016069 0.09745 -0.408559
2010-11-26 08:32:31 51°18.685 2°51.502 13.238 0.016069 0.09745 -0.408559
2010-11-26 08:32:35 51°18.698 2°51.491 13.2459 0.016173 0.098073 -0.408559
2010-11-26 08:32:40 51°18.714 2°51.477 13.2459 0.016173 0.098068 -0.408559
2010-11-26 08:32:45 51°18.729 2°51.463 13.2495 0.016173 0.098069 -0.408559
2010-11-26 08:32:51 51°18.749 2°51.446 13.2496 0.016173 0.098069 -0.373735
2010-11-26 08:32:55 51°18.762 2°51.434 13.2526 0.016173 0.098069 -0.373735
2010-11-26 08:33:00 51°18.777 2°51.42 13.2548 0.016173 0.098074 -0.408559
2010-11-26 08:33:06 51°18.797 2°51.403 13.2598 0.016173 0.098066 -0.408559
2010-11-26 08:33:11 51°18.813 2°51.388 13.2636 0.016173 0.098066 -0.443383
2010-11-26 08:33:15 51°18.825 2°51.377 13.2641 0.016173 0.098065 -0.408559
2010-11-26 08:33:21 51°18.844 2°51.36 13.2652 0.016173 0.098066 -0.443383
2010-11-26 08:33:26 51°18.86 2°51.345 13.2682 0.016173 0.098066 -0.443383
2010-11-26 08:33:31 51°18.876 2°51.331 13.269 0.016173 0.098065 -0.408559
2010-11-26 08:33:35 51°18.889 2°51.319 13.2764 0.016069 0.097443 -0.373735
2010-11-26 08:33:41 51°18.909 2°51.302 13.275 0.016173 0.098066 -0.443383
2010-11-26 08:33:45 51°18.922 2°51.291 13.282 0.016069 0.097442 -0.373735
2010-11-26 08:33:51 51°18.941 2°51.274 13.285 0.016173 0.098068 -0.373735
2010-11-26 08:33:55 51°18.954 2°51.262 13.2864 0.016173 0.098068 -0.373735
2010-11-26 08:34:01 51°18.973 2°51.245 13.2876 0.016173 0.098066 -0.408559
2010-11-26 08:34:06 51°18.989 2°51.231 13.2913 0.016173 0.098056 -0.408559
2010-11-26 08:34:11 51°19.005 2°51.216 13.2945 0.016173 0.098055 -0.443383
2010-11-26 08:34:15 51°19.018 2°51.205 13.2975 0.016069 0.097429 -0.443383
2010-11-26 08:34:20 51°19.035 2°51.19 13.2985 0.016173 0.098058 -0.373735
2010-11-26 08:34:26 51°19.054 2°51.173 13.303 0.016173 0.098058 -0.373735
2010-11-26 08:34:31 51°19.07 2°51.158 13.3047 0.016173 0.098056 -0.408559
2010-11-26 08:34:35 51°19.083 2°51.147 13.3074 0.016173 0.098055 -0.408559
2010-11-26 08:34:40 51°19.1 2°51.132 13.2075 0.016069 0.097434 -0.408559
2010-11-26 08:34:46 51°19.119 2°51.116 12.9374 0.016173 0.098058 -0.408559
2010-11-26 08:34:51 51°19.136 2°51.101 12.9525 0.016173 0.098058 -0.373735
2010-11-26 08:34:55 51°19.149 2°51.09 12.9778 0.016173 0.098058 -0.373735
2010-11-26 08:35:00 51°19.165 2°51.075 13.0443 0.016173 0.098058 -0.408559
2010-11-26 08:35:05 51°19.181 2°51.062 13.011 0.016173 0.098058 -0.408559
2010-11-26 08:35:11 51°19.201 2°51.045 13.062 0.016173 0.098063 -0.408559
2010-11-26 08:35:15 51°19.214 2°51.034 12.9969 0.016173 0.098056 -0.443383
2010-11-26 08:35:20 51°19.23 2°51.019 13.0172 0.016173 0.098055 -0.373735
2010-11-26 08:35:25 51°19.246 2°51.005 13.0522 0.016173 0.098055 -0.373735
2010-11-26 08:35:31 51°19.266 2°50.988 13.0622 0.016173 0.098055 -0.408559
2010-11-26 08:35:35 51°19.278 2°50.976 13.0576 0.016173 0.098056 -0.443383
2010-11-26 08:35:41 51°19.298 2°50.959 13.1222 0.016069 0.097432 -0.373735
2010-11-26 08:35:46 51°19.314 2°50.945 13.095 0.016069 0.09743 -0.408559
2010-11-26 08:35:51 51°19.33 2°50.93 13.0912 0.016173 0.09806 -0.408559
2010-11-26 08:35:55 51°19.343 2°50.919 13.0801 0.016173 0.09806 -0.408559
2010-11-26 08:36:01 51°19.363 2°50.902 13.0535 0.016173 0.09806 -0.408559
2010-11-26 08:36:05 51°19.376 2°50.891 13.1029 0.016173 0.098058 -0.408559
2010-11-26 08:36:11 51°19.395 2°50.874 13.0682 0.016069 0.097435 -0.408559
2010-11-26 08:36:15 51°19.408 2°50.863 13.1325 0.016173 0.09806 -0.408559
2010-11-26 08:36:20 51°19.424 2°50.849 13.0822 0.016173 0.098063 -0.408559
2010-11-26 08:36:26 51°19.444 2°50.832 13.1436 0.016173 0.098063 -0.408559
2010-11-26 08:36:31 51°19.46 2°50.818 13.1255 0.016173 0.098061 -0.408559
2010-11-26 08:36:35 51°19.473 2°50.806 13.0912 0.016173 0.098061 -0.408559
2010-11-26 08:36:41 51°19.493 2°50.79 13.1087 0.016173 0.09806 -0.373735
2010-11-26 08:36:46 51°19.509 2°50.776 13.1042 0.016173 0.098058 -0.408559
2010-11-26 08:36:51 51°19.525 2°50.762 13.1258 0.016173 0.098056 -0.373735
2010-11-26 08:36:55 51°19.538 2°50.751 13.137 0.016173 0.098056 -0.373735
2010-11-26 08:37:00 51°19.554 2°50.737 13.1132 0.016173 0.098055 -0.408559
2010-11-26 08:37:05 51°19.57 2°50.723 13.1252 0.016173 0.098055 -0.408559
2010-11-26 08:37:11 51°19.59 2°50.706 13.1007 0.016173 0.098055 -0.408559
2010-11-26 08:37:15 51°19.603 2°50.694 13.1642 0.016173 0.09806 -0.373735
2010-11-26 08:37:21 51°19.622 2°50.676 13.1537 0.016069 0.097434 -0.408559
2010-11-26 08:37:26 51°19.638 2°50.661 13.0981 0.016069 0.097434 -0.408559
2010-11-26 08:37:31 51°19.654 2°50.647 13.0992 0.016173 0.098056 -0.408559
2010-11-26 08:37:35 51°19.667 2°50.635 13.1234 0.016173 0.098061 -0.408559
2010-11-26 08:37:40 51°19.683 2°50.62 13.1062 0.016069 0.097434 -0.408559
2010-11-26 08:37:45 51°19.699 2°50.606 13.1369 0.016173 0.098056 -0.408559
2010-11-26 08:37:51 51°19.718 2°50.588 13.1696 0.016173 0.09806 -0.408559
2010-11-26 08:37:55 51°19.731 2°50.577 13.1866 0.016173 0.09806 -0.408559
2010-11-26 08:38:01 51°19.75 2°50.559 13.1296 0.016173 0.09806 -0.408559
2010-11-26 08:38:06 51°19.766 2°50.545 13.1123 0.016069 0.09743 -0.373735
2010-11-26 08:38:11 51°19.782 2°50.53 13.1587 0.016173 0.098063 -0.408559
2010-11-26 08:38:15 51°19.795 2°50.518 13.1463 0.016173 0.09806 -0.408559
2010-11-26 08:38:21 51°19.814 2°50.5 13.1324 0.016173 0.09806 -0.408559
2010-11-26 08:38:25 51°19.827 2°50.489 13.1249 0.016173 0.09806 -0.408559
2010-11-26 08:38:31 51°19.847 2°50.472 13.1464 0.016069 0.097434 -0.443383
2010-11-26 08:38:35 51°19.86 2°50.46 13.1449 0.016173 0.098058 -0.408559
2010-11-26 08:38:41 51°19.879 2°50.442 13.1381 0.016069 0.09743 -0.408559
2010-11-26 08:38:46 51°19.895 2°50.427 13.1805 0.016173 0.098053 -0.408559
2010-11-26 08:38:51 51°19.912 2°50.413 13.1735 0.016069 0.097429 -0.443383
2010-11-26 08:38:55 51°19.925 2°50.401 13.1831 0.016069 0.097429 -0.443383
2010-11-26 08:39:00 51°19.941 2°50.386 13.1631 0.016173 0.09805 -0.408559
2010-11-26 08:39:06 51°19.96 2°50.368 13.2005 0.016069 0.097424 -0.408559
2010-11-26 08:39:11 51°19.977 2°50.354 13.1545 0.016173 0.098051 -0.408559
2010-11-26 08:39:15 51°19.989 2°50.342 13.1927 0.016173 0.098053 -0.408559
2010-11-26 08:39:20 51°20.006 2°50.327 13.1603 0.016173 0.098053 -0.408559
2010-11-26 08:39:25 51°20.022 2°50.312 13.1506 0.016173 0.098053 -0.408559
2010-11-26 08:39:31 51°20.041 2°50.295 13.1903 0.016069 0.097427 -0.408559
2010-11-26 08:39:35 51°20.054 2°50.283 13.191 0.016173 0.09806 -0.408559
2010-11-26 08:39:40 51°20.069 2°50.268 13.209 0.016173 0.098055 -0.408559
2010-11-26 08:39:45 51°20.085 2°50.253 13.1663 0.016173 0.098055 -0.408559
2010-11-26 08:39:51 51°20.104 2°50.235 13.1907 0.016069 0.097427 -0.408559
2010-11-26 08:39:55 51°20.117 2°50.223 13.2162 0.016069 0.097427 -0.408559
2010-11-26 08:40:00 51°20.133 2°50.207 13.2151 0.016173 0.098043 -0.408559
2010-11-26 08:40:06 51°20.152 2°50.189 13.2125 0.016173 0.098043 -0.408559
2010-11-26 08:40:11 51°20.168 2°50.173 13.1914 0.016069 0.097417 -0.443383
2010-11-26 08:40:15 51°20.181 2°50.161 13.1929 0.016173 0.098045 -0.408559
2010-11-26 08:40:21 51°20.2 2°50.144 13.1689 0.016173 0.098042 -0.443383
2010-11-26 08:40:25 51°20.213 2°50.132 13.2014 0.016173 0.098042 -0.443383
2010-11-26 08:40:31 51°20.232 2°50.114 13.2022 0.016173 0.09804 -0.408559
2010-11-26 08:40:35 51°20.245 2°50.102 13.201 0.016173 0.098043 -0.443383
2010-11-26 08:40:41 51°20.264 2°50.084 13.2221 0.016173 0.098038 -0.408559
2010-11-26 08:40:45 51°20.277 2°50.073 13.1992 0.016069 0.097416 -0.408559
2010-11-26 08:40:51 51°20.296 2°50.055 13.2188 0.016173 0.098042 -0.373735
2010-11-26 08:40:55 51°20.309 2°50.043 13.205 0.016173 0.098042 -0.373735
2010-11-26 08:41:00 51°20.325 2°50.029 13.2254 0.016173 0.098042 -0.443383
2010-11-26 08:41:06 51°20.344 2°50.01 13.1852 0.016069 0.097414 -0.373735
2010-11-26 08:41:11 51°20.36 2°49.996 13.2306 0.016173 0.098045 -0.408559
2010-11-26 08:41:15 51°20.372 2°49.984 13.24 0.016173 0.098043 -0.443383
2010-11-26 08:41:20 51°20.388 2°49.97 13.2133 0.016173 0.098042 -0.408559
2010-11-26 08:41:25 51°20.404 2°49.955 13.2192 0.016173 0.098042 -0.408559
2010-11-26 08:41:31 51°20.423 2°49.937 13.2354 0.016069 0.097416 -0.408559
2010-11-26 08:41:35 51°20.436 2°49.925 13.2229 0.016173 0.098038 -0.408559
2010-11-26 08:41:40 51°20.452 2°49.911 13.2339 0.016069 0.097409 -0.373735
2010-11-26 08:41:45 51°20.468 2°49.896 13.2276 0.016069 0.097408 -0.408559
2010-11-26 08:41:51 51°20.487 2°49.878 13.2433 0.016069 0.097408 -0.373735
2010-11-26 08:41:55 51°20.5 2°49.866 13.2535 0.016069 0.097408 -0.373735
2010-11-26 08:42:00 51°20.516 2°49.851 13.2117 0.016069 0.097409 -0.373735
2010-11-26 08:42:05 51°20.532 2°49.837 13.2491 0.016069 0.097406 -0.408559
2010-11-26 08:42:11 51°20.552 2°49.82 13.2495 0.016173 0.098029 -0.373735
2010-11-26 08:42:15 51°20.565 2°49.809 13.2418 0.016069 0.097404 -0.408559
2010-11-26 08:42:21 51°20.584 2°49.792 13.2362 0.016173 0.09803 -0.408559
2010-11-26 08:42:25 51°20.597 2°49.781 13.2284 0.016173 0.09803 -0.408559
2010-11-26 08:42:31 51°20.616 2°49.764 13.2541 0.016069 0.097404 -0.408559
2010-11-26 08:42:35 51°20.629 2°49.753 13.2146 0.016173 0.09803 -0.408559
2010-11-26 08:42:40 51°20.646 2°49.739 13.2436 0.016173 0.098035 -0.373735
2010-11-26 08:42:46 51°20.665 2°49.722 13.2477 0.016173 0.098029 -0.408559
2010-11-26 08:42:51 51°20.681 2°49.709 13.2123 0.016173 0.098024 -0.408559
2010-11-26 08:42:55 51°20.694 2°49.698 13.2368 0.016173 0.098024 -0.408559
2010-11-26 08:43:01 51°20.713 2°49.682 13.2347 0.016069 0.097393 -0.408559
2010-11-26 08:43:06 51°20.729 2°49.668 13.2566 0.016173 0.09802 -0.408559
2010-11-26 08:43:11 51°20.745 2°49.654 13.2428 0.016069 0.097396 -0.408559
2010-11-26 08:43:15 51°20.759 2°49.643 13.2552 0.016173 0.098017 -0.443383
2010-11-26 08:43:20 51°20.775 2°49.628 13.2646 0.016069 0.097395 -0.408559
2010-11-26 08:43:26 51°20.794 2°49.612 13.2268 0.016069 0.097395 -0.408559
2010-11-26 08:43:31 51°20.811 2°49.598 13.2421 0.016069 0.09739 -0.408559
2010-11-26 08:43:35 51°20.824 2°49.587 13.2413 0.016069 0.097392 -0.408559
2010-11-26 08:43:40 51°20.84 2°49.573 13.2431 0.016069 0.097393 -0.408559
2010-11-26 08:43:45 51°20.856 2°49.559 13.273 0.016069 0.097395 -0.408559
2010-11-26 08:43:51 51°20.876 2°49.542 13.2337 0.016173 0.098017 -0.373735
2010-11-26 08:43:55 51°20.889 2°49.53 13.2539 0.016173 0.098017 -0.373735
2010-11-26 08:44:00 51°20.905 2°49.515 13.2582 0.016069 0.097393 -0.373735
2010-11-26 08:44:05 51°20.921 2°49.5 13.2616 0.016173 0.098019 -0.408559
2010-11-26 08:44:11 51°20.94 2°49.483 13.2487 0.016069 0.097398 -0.408559
2010-11-26 08:44:15 51°20.952 2°49.471 13.2869 0.016173 0.098027 -0.408559
2010-11-26 08:44:20 51°20.968 2°49.456 13.2708 0.016173 0.09804 -0.443383
2010-11-26 08:44:25 51°20.984 2°49.442 13.2721 0.016173 0.09804 -0.443383
2010-11-26 08:44:31 51°21.002 2°49.424 13.2513 0.016173 0.098034 -0.408559
2010-11-26 08:44:35 51°21.015 2°49.412 13.2779 0.016069 0.097406 -0.408559
2010-11-26 08:44:40 51°21.031 2°49.397 13.2941 0.016173 0.098027 -0.373735
2010-11-26 08:44:45 51°21.046 2°49.382 13.2507 0.016069 0.097401 -0.408559
2010-11-26 08:44:51 51°21.066 2°49.365 13.2525 0.016173 0.098025 -0.408559
2010-11-26 08:44:55 51°21.078 2°49.353 13.2788 0.016173 0.098025 -0.408559
2010-11-26 08:45:01 51°21.097 2°49.335 13.2732 0.016173 0.098024 -0.373735
2010-11-26 08:45:05 51°21.11 2°49.324 13.2653 0.016069 0.097398 -0.373735
2010-11-26 08:45:11 51°21.129 2°49.306 13.2571 0.016069 0.097398 -0.408559
2010-11-26 08:45:15 51°21.141 2°49.295 13.2688 0.016069 0.097398 -0.373735
2010-11-26 08:45:19 51°21.154 2°49.283 13.2979 0.016069 0.0974 -0.408559
2010-11-26 08:45:26 51°21.176 2°49.262 13.2982 0.016069 0.0974 -0.408559
2010-11-26 08:45:31 51°21.193 2°49.248 13.3022 0.016069 0.097398 -0.408559
2010-11-26 08:45:35 51°21.205 2°49.236 13.2915 0.016069 0.097396 -0.408559
2010-11-26 08:45:40 51°21.222 2°49.221 13.2869 0.016069 0.097395 -0.408559
2010-11-26 08:45:46 51°21.241 2°49.204 13.2795 0.016069 0.097398 -0.408559
2010-11-26 08:45:51 51°21.257 2°49.189 13.2845 0.016069 0.097396 -0.408559
2010-11-26 08:45:55 51°21.27 2°49.177 13.28 0.016069 0.097396 -0.408559
2010-11-26 08:46:00 51°21.286 2°49.163 13.2926 0.016069 0.097395 -0.373735
2010-11-26 08:46:05 51°21.303 2°49.148 13.2869 0.016069 0.097398 -0.443383
2010-11-26 08:46:11 51°21.322 2°49.13 13.2939 0.016069 0.097396 -0.373735
2010-11-26 08:46:15 51°21.335 2°49.119 13.2992 0.016069 0.097395 -0.373735
2010-11-26 08:46:20 51°21.351 2°49.105 13.3184 0.016069 0.097393 -0.443383
2010-11-26 08:46:25 51°21.367 2°49.09 13.2902 0.016069 0.097393 -0.443383
2010-11-26 08:46:31 51°21.387 2°49.073 13.3121 0.016069 0.097393 -0.373735
2010-11-26 08:46:35 51°21.4 2°49.061 13.298 0.016069 0.097392 -0.408559
2010-11-26 08:46:40 51°21.416 2°49.047 13.3186 0.016069 0.09739 -0.373735
2010-11-26 08:46:45 51°21.433 2°49.032 13.2929 0.016069 0.097395 -0.408559
2010-11-26 08:46:51 51°21.452 2°49.014 13.295 0.016069 0.097393 -0.443383
2010-11-26 08:46:55 51°21.465 2°49.002 13.3082 0.016069 0.097393 -0.443383
2010-11-26 08:47:01 51°21.485 2°48.985 13.3076 0.016069 0.09739 -0.408559
2010-11-26 08:47:05 51°21.498 2°48.974 13.3216 0.016173 0.098016 -0.408559
2010-11-26 08:47:11 51°21.518 2°48.957 13.3291 0.016069 0.097387 -0.443383
2010-11-26 08:47:15 51°21.531 2°48.945 13.3213 0.016069 0.097388 -0.373735
2010-11-26 08:47:20 51°21.547 2°48.93 13.3053 0.016069 0.097393 -0.408559
2010-11-26 08:47:26 51°21.567 2°48.913 13.3278 0.016069 0.097393 -0.408559
2010-11-26 08:47:31 51°21.583 2°48.899 13.3239 0.016069 0.097392 -0.408559
2010-11-26 08:47:35 51°21.596 2°48.887 13.3153 0.016173 0.098017 -0.443383
2010-11-26 08:47:40 51°21.613 2°48.873 13.3076 0.016069 0.09739 -0.408559
2010-11-26 08:47:46 51°21.632 2°48.856 13.3332 0.016069 0.09739 -0.408559
2010-11-26 08:47:51 51°21.649 2°48.841 13.3218 0.016069 0.097395 -0.408559
2010-11-26 08:47:55 51°21.662 2°48.83 13.326 0.016069 0.097395 -0.408559
2010-11-26 08:48:00 51°21.678 2°48.815 13.3033 0.016173 0.09802 -0.443383
2010-11-26 08:48:06 51°21.698 2°48.799 13.318 0.016069 0.097393 -0.408559
2010-11-26 08:48:11 51°21.714 2°48.785 13.3051 0.016173 0.098024 -0.408559
2010-11-26 08:48:15 51°21.727 2°48.774 13.3274 0.016173 0.098007 -0.408559
2010-11-26 08:48:20 51°21.743 2°48.759 13.3227 0.016069 0.097379 -0.408559
2010-11-26 08:48:25 51°21.76 2°48.745 13.3178 0.016069 0.097379 -0.408559
2010-11-26 08:48:31 51°21.78 2°48.728 13.3257 0.016069 0.097379 -0.443383
2010-11-26 08:48:35 51°21.793 2°48.716 13.3297 0.016069 0.097374 -0.408559
2010-11-26 08:48:41 51°21.813 2°48.699 13.3464 0.016069 0.097375 -0.408559
2010-11-26 08:48:45 51°21.826 2°48.687 13.3177 0.016069 0.097374 -0.408559
2010-11-26 08:48:51 51°21.846 2°48.669 13.3242 0.016173 0.098001 -0.408559
2010-11-26 08:48:55 51°21.859 2°48.658 13.3464 0.016173 0.098001 -0.408559
2010-11-26 08:49:00 51°21.875 2°48.643 13.3289 0.016173 0.098009 -0.408559
2010-11-26 08:49:05 51°21.891 2°48.63 13.3391 0.016173 0.098006 -0.373735
2010-11-26 08:49:11 51°21.911 2°48.612 13.327 0.016069 0.09738 -0.408559
2010-11-26 08:49:15 51°21.925 2°48.601 13.3484 0.016069 0.097377 -0.408559
2010-11-26 08:49:21 51°21.944 2°48.584 13.3314 0.016069 0.097379 -0.408559
2010-11-26 08:49:25 51°21.958 2°48.572 13.3575 0.016069 0.097379 -0.408559
2010-11-26 08:49:31 51°21.977 2°48.555 13.3495 0.016069 0.097379 -0.408559
2010-11-26 08:49:35 51°21.99 2°48.544 13.3711 0.016069 0.097374 -0.408559
2010-11-26 08:49:41 51°22.01 2°48.526 13.3586 0.016069 0.097377 -0.408559
2010-11-26 08:49:46 51°22.026 2°48.512 13.3554 0.016069 0.097374 -0.443383
2010-11-26 08:49:51 51°22.043 2°48.498 13.3594 0.016069 0.097375 -0.408559
2010-11-26 08:49:55 51°22.056 2°48.486 13.3378 0.016069 0.097375 -0.408559
2010-11-26 08:50:00 51°22.073 2°48.472 13.3587 0.016069 0.097375 -0.373735
2010-11-26 08:50:06 51°22.092 2°48.454 13.3509 0.016069 0.097375 -0.373735
2010-11-26 08:50:11 51°22.109 2°48.44 13.3576 0.016069 0.097375 -0.443383
2010-11-26 08:50:15 51°22.122 2°48.428 13.3452 0.016069 0.097374 -0.408559
2010-11-26 08:50:21 51°22.142 2°48.411 13.3628 0.016069 0.097372 -0.443383
2010-11-26 08:50:26 51°22.158 2°48.396 13.3737 0.016069 0.097372 -0.443383
2010-11-26 08:50:31 51°22.175 2°48.382 13.3479 0.016173 0.097998 -0.408559
2010-11-26 08:50:35 51°22.188 2°48.371 13.3597 0.016069 0.097369 -0.408559
2010-11-26 08:50:40 51°22.204 2°48.356 13.3509 0.016069 0.09737 -0.408559
2010-11-26 08:50:46 51°22.223 2°48.338 13.3682 0.016069 0.097369 -0.408559
2010-11-26 08:50:51 51°22.239 2°48.323 13.3772 0.016069 0.097369 -0.373735
2010-11-26 08:50:55 51°22.252 2°48.312 13.3846 0.016069 0.097369 -0.373735
2010-11-26 08:51:00 51°22.268 2°48.297 13.3684 0.016069 0.097374 -0.408559
2010-11-26 08:51:06 51°22.287 2°48.279 13.3581 0.016069 0.097374 -0.408559
2010-11-26 08:51:11 51°22.303 2°48.264 13.3702 0.016069 0.097372 -0.408559
2010-11-26 08:51:15 51°22.316 2°48.253 13.3735 0.016069 0.09737 -0.408559
2010-11-26 08:51:21 51°22.335 2°48.235 13.3672 0.016069 0.097372 -0.408559
2010-11-26 08:51:26 51°22.351 2°48.22 13.3705 0.016069 0.097372 -0.408559
2010-11-26 08:51:31 51°22.367 2°48.206 13.3513 0.016069 0.097375 -0.408559
2010-11-26 08:51:35 51°22.38 2°48.194 13.3925 0.016069 0.097375 -0.408559
2010-11-26 08:51:40 51°22.395 2°48.179 13.3635 0.016173 0.098007 -0.408559
2010-11-26 08:51:46 51°22.414 2°48.162 13.3779 0.016173 0.098004 -0.408559
2010-11-26 08:51:51 51°22.429 2°48.147 13.3724 0.016069 0.097379 -0.408559
2010-11-26 08:51:55 51°22.442 2°48.135 13.3549 0.016069 0.097379 -0.408559
2010-11-26 08:52:00 51°22.458 2°48.121 13.3956 0.016069 0.097374 -0.443383
2010-11-26 08:52:06 51°22.477 2°48.104 13.3656 0.016069 0.097379 -0.408559
2010-11-26 08:52:11 51°22.492 2°48.089 13.396 0.016173 0.098003 -0.408559
2010-11-26 08:52:15 51°22.505 2°48.078 13.3683 0.016069 0.097374 -0.408559
2010-11-26 08:52:20 51°22.521 2°48.063 13.3895 0.016069 0.097374 -0.443383
2010-11-26 08:52:26 51°22.54 2°48.046 13.3841 0.016069 0.097374 -0.443383
2010-11-26 08:52:31 51°22.556 2°48.032 13.3763 0.016173 0.098003 -0.408559
2010-11-26 08:52:35 51°22.568 2°48.02 13.3936 0.016069 0.097377 -0.373735
2010-11-26 08:52:40 51°22.584 2°48.006 13.3746 0.016069 0.097379 -0.408559
2010-11-26 08:52:46 51°22.602 2°47.988 13.3921 0.016069 0.09738 -0.408559
2010-11-26 08:52:51 51°22.618 2°47.975 13.3991 0.016173 0.097993 -0.408559
2010-11-26 08:52:55 51°22.631 2°47.963 13.3744 0.016173 0.097993 -0.408559
2010-11-26 08:53:00 51°22.646 2°47.949 13.3758 0.016069 0.097366 -0.408559
2010-11-26 08:53:06 51°22.665 2°47.932 13.3885 0.016173 0.097991 -0.373735
2010-11-26 08:53:11 51°22.68 2°47.917 13.4071 0.016069 0.097369 -0.408559
2010-11-26 08:53:15 51°22.693 2°47.907 13.3851 0.016173 0.097988 -0.373735
2010-11-26 08:53:20 51°22.709 2°47.892 13.3979 0.016069 0.097359 -0.408559
2010-11-26 08:53:26 51°22.728 2°47.877 13.3769 0.016069 0.097359 -0.408559
2010-11-26 08:53:31 51°22.743 2°47.862 13.4267 0.016069 0.097351 -0.408559
2010-11-26 08:53:35 51°22.756 2°47.852 13.3982 0.016069 0.097354 -0.373735
2010-11-26 08:53:41 51°22.775 2°47.834 13.4012 0.016069 0.097356 -0.408559
2010-11-26 08:53:46 51°22.791 2°47.822 13.4133 0.016173 0.097986 -0.408559
2010-11-26 08:53:51 51°22.807 2°47.807 13.401 0.016069 0.097358 -0.408559
2010-11-26 08:53:55 51°22.82 2°47.798 13.4114 0.016069 0.097358 -0.408559
2010-11-26 08:54:01 51°22.839 2°47.78 13.4135 0.016069 0.097356 -0.408559
2010-11-26 08:54:06 51°22.855 2°47.769 13.3917 0.016069 0.097358 -0.373735
2010-11-26 08:54:11 51°22.87 2°47.754 13.4304 0.016069 0.097358 -0.408559
2010-11-26 08:54:15 51°22.883 2°47.744 13.4023 0.016069 0.097359 -0.408559
2010-11-26 08:54:20 51°22.899 2°47.731 13.4116 0.016069 0.097356 -0.443383
2010-11-26 08:54:26 51°22.919 2°47.715 13.408 0.016069 0.097356 -0.443383
2010-11-26 08:54:31 51°22.934 2°47.702 13.4034 0.016069 0.097356 -0.408559
2010-11-26 08:54:35 51°22.947 2°47.692 13.4115 0.016069 0.097361 -0.408559
2010-11-26 08:54:40 51°22.963 2°47.679 13.4349 0.016069 0.097362 -0.408559
2010-11-26 08:54:46 51°22.983 2°47.664 13.4085 0.016069 0.097364 -0.408559
2010-11-26 08:54:51 51°22.999 2°47.651 13.4337 0.016069 0.097362 -0.408559
2010-11-26 08:54:55 51°23.012 2°47.64 13.4227 0.016069 0.097362 -0.408559
2010-11-26 08:55:00 51°23.028 2°47.627 13.4296 0.016069 0.097359 -0.408559
2010-11-26 08:55:05 51°23.045 2°47.614 13.4275 0.016069 0.097358 -0.373735
2010-11-26 08:55:11 51°23.064 2°47.598 13.4435 0.016069 0.097358 -0.408559
2010-11-26 08:55:15 51°23.077 2°47.588 13.4312 0.016069 0.097356 -0.408559
2010-11-26 08:55:21 51°23.097 2°47.571 13.4265 0.016069 0.097359 -0.443383
2010-11-26 08:55:25 51°23.11 2°47.561 13.4311 0.016069 0.097359 -0.443383
2010-11-26 08:55:31 51°23.129 2°47.545 13.457 0.016069 0.097362 -0.443383
2010-11-26 08:55:35 51°23.142 2°47.534 13.4328 0.016069 0.097367 -0.373735
2010-11-26 08:55:41 51°23.161 2°47.519 13.4428 0.016069 0.097369 -0.408559
2010-11-26 08:55:46 51°23.177 2°47.505 13.4386 0.016069 0.097374 -0.408559
2010-11-26 08:55:51 51°23.193 2°47.493 13.4416 0.016069 0.097367 -0.408559
2010-11-26 08:55:55 51°23.206 2°47.482 13.4435 0.016069 0.097367 -0.408559
2010-11-26 08:56:00 51°23.222 2°47.469 13.4353 0.016069 0.097377 -0.408559
2010-11-26 08:56:06 51°23.242 2°47.453 13.4301 0.016069 0.097372 -0.408559
2010-11-26 08:56:11 51°23.257 2°47.441 13.46 0.016173 0.097999 -0.408559
2010-11-26 08:56:15 51°23.27 2°47.43 13.4432 0.016173 0.098006 -0.408559
2010-11-26 08:56:21 51°23.289 2°47.415 13.4573 0.016069 0.09738 -0.408559
2010-11-26 08:56:26 51°23.305 2°47.401 13.458 0.016069 0.09738 -0.408559
2010-11-26 08:56:31 51°23.322 2°47.388 13.4457 0.016069 0.097387 -0.443383
2010-11-26 08:56:35 51°23.335 2°47.378 13.4543 0.016069 0.09738 -0.408559
2010-11-26 08:56:40 51°23.35 2°47.363 13.4505 0.016069 0.097383 -0.408559
2010-11-26 08:56:46 51°23.369 2°47.348 13.4712 0.016069 0.097375 -0.408559
2010-11-26 08:56:51 51°23.385 2°47.334 13.4729 0.016069 0.097383 -0.408559
2010-11-26 08:56:55 51°23.398 2°47.323 13.4528 0.016069 0.097383 -0.408559
2010-11-26 08:57:00 51°23.414 2°47.31 13.4698 0.016069 0.097393 -0.443383
2010-11-26 08:57:06 51°23.433 2°47.294 13.4769 0.016069 0.097377 -0.408559
2010-11-26 08:57:11 51°23.449 2°47.281 13.4524 0.016069 0.097374 -0.408559
2010-11-26 08:57:15 51°23.462 2°47.271 13.4744 0.016173 0.097999 -0.408559
2010-11-26 08:57:20 51°23.478 2°47.256 13.4703 0.016069 0.097372 -0.408559
2010-11-26 08:57:26 51°23.497 2°47.242 13.4636 0.016069 0.097372 -0.408559
2010-11-26 08:57:31 51°23.513 2°47.228 13.468 0.016173 0.097994 -0.408559
2010-11-26 08:57:35 51°23.526 2°47.218 13.4543 0.016069 0.097362 -0.408559
2010-11-26 08:57:40 51°23.542 2°47.205 13.4811 0.016069 0.097354 -0.373735
2010-11-26 08:57:46 51°23.561 2°47.188 13.4756 0.016069 0.097353 -0.443383
2010-11-26 08:57:51 51°23.578 2°47.176 13.4719 0.016069 0.097351 -0.408559
2010-11-26 08:57:55 51°23.591 2°47.165 13.4757 0.016069 0.097351 -0.408559
2010-11-26 08:58:00 51°23.607 2°47.152 13.4639 0.016069 0.097362 -0.373735
2010-11-26 08:58:06 51°23.626 2°47.136 13.4898 0.016069 0.097361 -0.408559
2010-11-26 08:58:11 51°23.642 2°47.121 13.4663 0.016069 0.097364 -0.408559
2010-11-26 08:58:15 51°23.655 2°47.11 13.4735 0.016173 0.098001 -0.408559
2010-11-26 08:58:20 51°23.67 2°47.096 13.4769 0.016069 0.097374 -0.408559
2010-11-26 08:58:26 51°23.688 2°47.079 13.4856 0.016069 0.097374 -0.408559
2010-11-26 08:58:31 51°23.704 2°47.063 13.4828 0.016069 0.097374 -0.408559
2010-11-26 08:58:35 51°23.716 2°47.051 13.4834 0.016069 0.09737 -0.443383
2010-11-26 08:58:41 51°23.735 2°47.033 13.4975 0.016069 0.097367 -0.408559
2010-11-26 08:58:46 51°23.751 2°47.018 13.4936 0.016069 0.097369 -0.408559
2010-11-26 08:58:51 51°23.766 2°47.003 13.4855 0.016069 0.097367 -0.408559
2010-11-26 08:58:55 51°23.779 2°46.991 13.4936 0.016069 0.097367 -0.408559
2010-11-26 08:59:01 51°23.798 2°46.974 13.4951 0.016069 0.097366 -0.408559
2010-11-26 08:59:06 51°23.813 2°46.959 13.4978 0.016069 0.097366 -0.443383
2010-11-26 08:59:11 51°23.829 2°46.944 13.5072 0.016069 0.097364 -0.408559
2010-11-26 08:59:15 51°23.842 2°46.932 13.4998 0.016069 0.097361 -0.408559
2010-11-26 08:59:20 51°23.858 2°46.917 13.5005 0.016069 0.097364 -0.408559
2010-11-26 08:59:26 51°23.877 2°46.901 13.5113 0.016069 0.097364 -0.408559
2010-11-26 08:59:31 51°23.893 2°46.887 13.5143 0.016069 0.097359 -0.373735
2010-11-26 08:59:35 51°23.906 2°46.875 13.5018 0.016069 0.097361 -0.408559
2010-11-26 08:59:40 51°23.922 2°46.861 13.5058 0.016069 0.097358 -0.408559
2010-11-26 08:59:46 51°23.941 2°46.844 13.5069 0.016069 0.097358 -0.408559
2010-11-26 08:59:51 51°23.957 2°46.83 13.5086 0.016069 0.097354 -0.408559
2010-11-26 08:59:55 51°23.97 2°46.819 13.5141 0.016069 0.097354 -0.408559
2010-11-26 09:00:00 51°23.986 2°46.805 13.5008 0.016069 0.097354 -0.443383
2010-11-26 09:00:06 51°24.005 2°46.788 13.521 0.016069 0.097354 -0.443383
2010-11-26 09:00:11 51°24.021 2°46.773 13.5174 0.016069 0.097353 -0.408559
2010-11-26 09:00:15 51°24.034 2°46.763 13.5216 0.016069 0.097353 -0.443383
2010-11-26 09:00:20 51°24.05 2°46.748 13.5076 0.016069 0.097351 -0.408559
2010-11-26 09:00:26 51°24.07 2°46.732 13.5191 0.016069 0.097351 -0.408559
2010-11-26 09:00:31 51°24.086 2°46.717 13.5174 0.016069 0.097348 -0.408559
2010-11-26 09:00:35 51°24.099 2°46.707 13.5297 0.016069 0.097346 -0.443383
2010-11-26 09:00:40 51°24.115 2°46.692 13.5335 0.016069 0.097348 -0.408559
2010-11-26 09:00:46 51°24.134 2°46.676 13.5205 0.016069 0.097348 -0.408559
2010-11-26 09:00:51 51°24.15 2°46.661 13.5248 0.016069 0.097351 -0.408559
2010-11-26 09:00:55 51°24.163 2°46.65 13.5213 0.016069 0.097351 -0.408559
2010-11-26 09:01:00 51°24.179 2°46.635 13.5428 0.016069 0.097346 -0.408559
2010-11-26 09:01:06 51°24.199 2°46.618 13.5271 0.016069 0.097351 -0.408559
2010-11-26 09:01:11 51°24.215 2°46.604 13.5502 0.016069 0.097348 -0.408559
2010-11-26 09:01:15 51°24.227 2°46.592 13.5275 0.016069 0.097349 -0.408559
2010-11-26 09:01:21 51°24.247 2°46.576 13.5454 0.016069 0.097341 -0.408559
2010-11-26 09:01:26 51°24.263 2°46.562 13.5363 0.016069 0.097341 -0.408559
2010-11-26 09:01:31 51°24.279 2°46.548 13.5372 0.016069 0.097343 -0.408559
2010-11-26 09:01:35 51°24.291 2°46.537 13.5262 0.016069 0.097341 -0.408559
2010-11-26 09:01:41 51°24.311 2°46.52 13.5511 0.016069 0.097341 -0.408559
2010-11-26 09:01:46 51°24.327 2°46.506 13.5472 0.016069 0.097337 -0.408559
2010-11-26 09:01:51 51°24.343 2°46.492 13.5421 0.016069 0.097338 -0.408559
2010-11-26 09:01:55 51°24.356 2°46.481 13.5526 0.016069 0.097338 -0.408559
2010-11-26 09:02:00 51°24.371 2°46.467 13.5507 0.016069 0.09734 -0.443383
2010-11-26 09:02:06 51°24.391 2°46.451 13.546 0.016069 0.097345 -0.408559
2010-11-26 09:02:11 51°24.407 2°46.437 13.5455 0.016069 0.097345 -0.408559
2010-11-26 09:02:15 51°24.42 2°46.426 13.5489 0.016069 0.097349 -0.408559
2010-11-26 09:02:20 51°24.436 2°46.412 13.5479 0.016069 0.097346 -0.443383
2010-11-26 09:02:26 51°24.455 2°46.396 13.5663 0.016069 0.097346 -0.443383
2010-11-26 09:02:31 51°24.471 2°46.382 13.5443 0.016069 0.097345 -0.408559
2010-11-26 09:02:35 51°24.484 2°46.371 13.5629 0.016069 0.097349 -0.443383
2010-11-26 09:02:40 51°24.499 2°46.356 13.5576 0.016069 0.097358 -0.408559
2010-11-26 09:02:46 51°24.518 2°46.339 13.5515 0.016173 0.097981 -0.408559
2010-11-26 09:02:51 51°24.534 2°46.325 13.5632 0.016173 0.097975 -0.408559
2010-11-26 09:02:55 51°24.547 2°46.314 13.5616 0.016173 0.097975 -0.408559
2010-11-26 09:03:00 51°24.563 2°46.3 13.5572 0.016069 0.097346 -0.373735
2010-11-26 09:03:06 51°24.582 2°46.284 13.5722 0.016069 0.097343 -0.443383
2010-11-26 09:03:11 51°24.598 2°46.269 13.5622 0.016069 0.097346 -0.408559
2010-11-26 09:03:15 51°24.611 2°46.259 13.5695 0.016069 0.097343 -0.408559
2010-11-26 09:03:20 51°24.627 2°46.245 13.5736 0.016069 0.097341 -0.408559
2010-11-26 09:03:26 51°24.647 2°46.229 13.5777 0.016069 0.097341 -0.408559
2010-11-26 09:03:31 51°24.663 2°46.215 13.5766 0.016069 0.097345 -0.408559
2010-11-26 09:03:35 51°24.676 2°46.204 13.5662 0.016069 0.097343 -0.408559
2010-11-26 09:03:41 51°24.695 2°46.187 13.5703 0.016069 0.097345 -0.373735
2010-11-26 09:03:46 51°24.712 2°46.173 13.586 0.016069 0.097345 -0.408559
2010-11-26 09:03:51 51°24.728 2°46.159 13.584 0.016069 0.097343 -0.408559
2010-11-26 09:03:55 51°24.741 2°46.149 13.5779 0.016069 0.097343 -0.408559
2010-11-26 09:04:00 51°24.757 2°46.135 13.5823 0.016069 0.097343 -0.373735
2010-11-26 09:04:06 51°24.776 2°46.118 13.5836 0.016069 0.097343 -0.443383
2010-11-26 09:04:11 51°24.793 2°46.104 13.5777 0.016069 0.097345 -0.443383
2010-11-26 09:04:15 51°24.806 2°46.093 13.5973 0.016069 0.097341 -0.408559
2010-11-26 09:04:20 51°24.822 2°46.079 13.5836 0.016069 0.097338 -0.408559
2010-11-26 09:04:26 51°24.841 2°46.063 13.598 0.016069 0.097338 -0.408559
2010-11-26 09:04:31 51°24.857 2°46.048 13.5801 0.016069 0.097338 -0.408559
2010-11-26 09:04:35 51°24.87 2°46.037 13.5972 0.016069 0.097337 -0.408559
2010-11-26 09:04:40 51°24.886 2°46.022 13.5929 0.016069 0.097337 -0.408559
2010-11-26 09:04:46 51°24.906 2°46.006 13.5926 0.016069 0.097333 -0.408559
2010-11-26 09:04:51 51°24.921 2°45.992 13.6045 0.016069 0.097343 -0.408559
2010-11-26 09:04:55 51°24.934 2°45.98 13.5912 0.016069 0.097343 -0.408559
2010-11-26 09:05:00 51°24.95 2°45.967 13.61 0.016069 0.09734 -0.408559
2010-11-26 09:05:06 51°24.969 2°45.949 13.598 0.016069 0.097343 -0.408559
2010-11-26 09:05:11 51°24.985 2°45.936 13.614 0.016069 0.09734 -0.408559
2010-11-26 09:05:15 51°24.998 2°45.923 13.592 0.016069 0.097341 -0.373735
2010-11-26 09:05:21 51°25.018 2°45.908 13.612 0.016069 0.097324 -0.443383
2010-11-26 09:05:26 51°25.033 2°45.892 13.5966 0.016069 0.097324 -0.443383
2010-11-26 09:05:31 51°25.05 2°45.88 13.6117 0.016069 0.097338 -0.408559
2010-11-26 09:05:35 51°25.062 2°45.867 13.5922 0.016069 0.097329 -0.408559
2010-11-26 09:05:40 51°25.079 2°45.854 13.5935 0.016069 0.097327 -0.408559
2010-11-26 09:05:46 51°25.097 2°45.837 13.6012 0.016173 0.097959 -0.408559
2010-11-26 09:05:51 51°25.113 2°45.824 13.6024 0.016069 0.097329 -0.443383
2010-11-26 09:05:55 51°25.126 2°45.812 13.6111 0.016069 0.097329 -0.443383
2010-11-26 09:06:00 51°25.143 2°45.798 13.6192 0.016173 0.097952 -0.408559
2010-11-26 09:06:06 51°25.162 2°45.782 13.604 0.016069 0.097329 -0.408559
2010-11-26 09:06:11 51°25.178 2°45.767 13.6108 0.016069 0.097329 -0.408559
2010-11-26 09:06:15 51°25.191 2°45.757 13.6126 0.016069 0.097327 -0.408559
2010-11-26 09:06:20 51°25.206 2°45.743 13.6169 0.016069 0.097327 -0.408559
2010-11-26 09:06:26 51°25.226 2°45.727 13.6173 0.016069 0.097327 -0.408559
2010-11-26 09:06:31 51°25.242 2°45.712 13.6184 0.016069 0.097338 -0.408559
2010-11-26 09:06:35 51°25.255 2°45.702 13.6138 0.016069 0.097346 -0.408559
2010-11-26 09:06:41 51°25.274 2°45.685 13.6371 0.016173 0.097963 -0.408559
2010-11-26 09:06:46 51°25.29 2°45.672 13.6217 0.016069 0.097338 -0.408559
2010-11-26 09:06:51 51°25.306 2°45.657 13.6261 0.016069 0.097346 -0.408559
2010-11-26 09:06:55 51°25.318 2°45.647 13.623 0.016069 0.097346 -0.408559
2010-11-26 09:07:00 51°25.334 2°45.633 13.6272 0.016069 0.097343 -0.408559
2010-11-26 09:07:06 51°25.354 2°45.617 13.6237 0.016069 0.097341 -0.408559
2010-11-26 09:07:11 51°25.369 2°45.603 13.6369 0.016069 0.097343 -0.408559
2010-11-26 09:07:15 51°25.382 2°45.592 13.626 0.016069 0.097345 -0.408559
2010-11-26 09:07:20 51°25.398 2°45.578 13.6501 0.016069 0.097345 -0.408559
2010-11-26 09:07:26 51°25.417 2°45.561 13.6289 0.016069 0.097345 -0.408559
2010-11-26 09:07:31 51°25.434 2°45.549 13.6441 0.016069 0.097348 -0.408559
2010-11-26 09:07:35 51°25.446 2°45.537 13.6392 0.016069 0.097346 -0.443383
2010-11-26 09:07:41 51°25.466 2°45.521 13.6401 0.016069 0.097343 -0.443383
2010-11-26 09:07:46 51°25.482 2°45.507 13.6422 0.016069 0.09734 -0.373735
2010-11-26 09:07:51 51°25.497 2°45.493 13.6469 0.016069 0.097338 -0.408559
2010-11-26 09:07:55 51°25.511 2°45.482 13.6488 0.016069 0.097338 -0.408559
2010-11-26 09:08:00 51°25.527 2°45.468 13.6503 0.016069 0.09734 -0.408559
2010-11-26 09:08:06 51°25.546 2°45.453 13.6567 0.016069 0.097338 -0.408559
2010-11-26 09:08:11 51°25.562 2°45.438 13.655 0.016069 0.09734 -0.408559
2010-11-26 09:08:15 51°25.575 2°45.429 13.6446 0.016069 0.097333 -0.408559
2010-11-26 09:08:21 51°25.594 2°45.412 13.652 0.016069 0.097346 -0.408559
2010-11-26 09:08:26 51°25.61 2°45.399 13.6614 0.016069 0.097346 -0.408559
2010-11-26 09:08:31 51°25.626 2°45.385 13.6674 0.016173 0.09795 -0.408559
2010-11-26 09:08:35 51°25.638 2°45.375 13.6528 0.016069 0.097314 -0.408559
2010-11-26 09:08:40 51°25.654 2°45.362 13.6674 0.016069 0.097311 -0.408559
2010-11-26 09:08:46 51°25.673 2°45.346 13.6576 0.016069 0.097314 -0.408559
2010-11-26 09:08:51 51°25.689 2°45.333 13.6668 0.016069 0.097319 -0.373735
2010-11-26 09:08:55 51°25.702 2°45.322 13.6606 0.016069 0.097319 -0.373735
2010-11-26 09:09:00 51°25.718 2°45.309 13.6724 0.016069 0.097322 -0.408559
2010-11-26 09:09:06 51°25.737 2°45.292 13.6796 0.016069 0.097324 -0.408559
2010-11-26 09:09:11 51°25.753 2°45.279 13.6682 0.016069 0.097324 -0.443383
2010-11-26 09:09:15 51°25.766 2°45.269 13.6699 0.016069 0.097337 -0.408559
2010-11-26 09:09:20 51°25.781 2°45.256 13.6625 0.016069 0.097338 -0.408559
2010-11-26 09:09:26 51°25.8 2°45.239 13.6782 0.016069 0.097338 -0.408559
2010-11-26 09:09:31 51°25.816 2°45.227 13.6678 0.016069 0.097333 -0.373735
2010-11-26 09:09:35 51°25.829 2°45.216 13.6801 0.016069 0.097327 -0.408559
2010-11-26 09:09:40 51°25.845 2°45.202 13.6831 0.016069 0.097325 -0.408559
2010-11-26 09:09:46 51°25.864 2°45.186 13.6914 0.016069 0.097324 -0.408559
2010-11-26 09:09:51 51°25.88 2°45.172 13.6728 0.016069 0.097337 -0.408559
2010-11-26 09:09:55 51°25.893 2°45.162 13.685 0.016069 0.097337 -0.408559
2010-11-26 09:10:00 51°25.908 2°45.148 13.6812 0.016069 0.09733 -0.408559
2010-11-26 09:10:06 51°25.928 2°45.132 13.6821 0.016069 0.097322 -0.373735
2010-11-26 09:10:11 51°25.944 2°45.119 13.6921 0.016069 0.097324 -0.443383
2010-11-26 09:10:15 51°25.956 2°45.107 13.6841 0.016069 0.097325 -0.408559
2010-11-26 09:10:20 51°25.972 2°45.094 13.6907 0.016069 0.097327 -0.443383
2010-11-26 09:10:26 51°25.991 2°45.078 13.6954 0.016069 0.097327 -0.443383
2010-11-26 09:10:31 51°26.008 2°45.065 13.6906 0.016069 0.097327 -0.408559
2010-11-26 09:10:35 51°26.02 2°45.055 13.6984 0.016069 0.097329 -0.408559
2010-11-26 09:10:41 51°26.04 2°45.039 13.6942 0.016069 0.097329 -0.408559
2010-11-26 09:10:45 51°26.052 2°45.029 13.6958 0.016069 0.097332 -0.408559
2010-11-26 09:10:51 51°26.072 2°45.012 13.691 0.016069 0.097332 -0.408559
2010-11-26 09:10:55 51°26.084 2°45.001 13.7075 0.016069 0.097332 -0.408559
2010-11-26 09:11:00 51°26.101 2°44.988 13.7007 0.016069 0.097327 -0.408559
2010-11-26 09:11:06 51°26.12 2°44.971 13.6994 0.016069 0.097325 -0.408559
2010-11-26 09:11:11 51°26.136 2°44.958 13.703 0.016069 0.097325 -0.373735
2010-11-26 09:11:15 51°26.149 2°44.946 13.7013 0.016069 0.097325 -0.408559
2010-11-26 09:11:20 51°26.165 2°44.933 13.7076 0.016069 0.097324 -0.443383
2010-11-26 09:11:26 51°26.184 2°44.916 13.712 0.016069 0.097324 -0.443383
2010-11-26 09:11:31 51°26.2 2°44.903 13.7197 0.016069 0.097325 -0.408559
2010-11-26 09:11:35 51°26.213 2°44.892 13.7233 0.016069 0.097324 -0.408559
2010-11-26 09:11:41 51°26.233 2°44.876 13.7193 0.016069 0.097322 -0.408559
2010-11-26 09:11:46 51°26.249 2°44.862 13.7255 0.016069 0.097319 -0.408559
2010-11-26 09:11:51 51°26.265 2°44.848 13.7179 0.016069 0.09732 -0.408559
2010-11-26 09:11:55 51°26.278 2°44.837 13.7216 0.016069 0.09732 -0.408559
2010-11-26 09:12:00 51°26.294 2°44.823 13.7235 0.016069 0.097317 -0.408559
2010-11-26 09:12:06 51°26.313 2°44.806 13.7317 0.016069 0.097319 -0.373735
2010-11-26 09:12:11 51°26.329 2°44.793 13.7307 0.016069 0.097319 -0.408559
2010-11-26 09:12:15 51°26.342 2°44.782 13.7317 0.016069 0.09732 -0.408559
2010-11-26 09:12:21 51°26.361 2°44.765 13.7291 0.016069 0.09732 -0.373735
2010-11-26 09:12:26 51°26.377 2°44.752 13.7314 0.016069 0.09732 -0.373735
2010-11-26 09:12:31 51°26.393 2°44.738 13.7364 0.016069 0.097324 -0.373735
2010-11-26 09:12:35 51°26.406 2°44.727 13.7369 0.016069 0.09732 -0.408559
2010-11-26 09:12:40 51°26.422 2°44.714 13.741 0.016069 0.097322 -0.408559
2010-11-26 09:12:46 51°26.441 2°44.698 13.7393 0.016069 0.097324 -0.408559
2010-11-26 09:12:51 51°26.457 2°44.684 13.7521 0.016069 0.097324 -0.443383
2010-11-26 09:12:55 51°26.47 2°44.674 13.755 0.016069 0.097324 -0.443383
2010-11-26 09:13:00 51°26.486 2°44.664 13.7551 0.016069 0.097325 -0.408559
2010-11-26 09:13:06 51°26.506 2°44.654 13.7612 0.016069 0.097317 -0.373735
2010-11-26 09:13:11 51°26.523 2°44.646 13.761 0.016069 0.097317 -0.408559
2010-11-26 09:13:15 51°26.537 2°44.644 13.7647 0.016069 0.097311 -0.408559
2010-11-26 09:13:20 51°26.554 2°44.644 13.7656 0.016069 0.097301 -0.443383
2010-11-26 09:13:26 51°26.574 2°44.648 13.7681 0.016069 0.097301 -0.443383
2010-11-26 09:13:31 51°26.589 2°44.656 13.7683 0.016069 0.097296 -0.443383
2010-11-26 09:13:35 51°26.601 2°44.666 13.766 0.016069 0.097293 -0.408559
2010-11-26 09:13:40 51°26.615 2°44.678 13.7605 0.016069 0.097288 -0.443383
2010-11-26 09:13:46 51°26.63 2°44.697 13.7575 0.016173 0.097907 -0.408559
2010-11-26 09:13:51 51°26.644 2°44.71 13.7721 0.016069 0.097279 -0.408559
2010-11-26 09:13:55 51°26.655 2°44.723 13.7572 0.016069 0.097279 -0.408559
2010-11-26 09:14:00 51°26.667 2°44.741 13.765 0.016173 0.0979 -0.408559
2010-11-26 09:14:06 51°26.683 2°44.76 13.7642 0.016069 0.09728 -0.408559
2010-11-26 09:14:11 51°26.695 2°44.779 13.7639 0.016069 0.097279 -0.443383
2010-11-26 09:14:15 51°26.706 2°44.792 13.76 0.016069 0.097287 -0.443383
2010-11-26 09:14:21 51°26.719 2°44.815 13.776 0.016069 0.097283 -0.408559
2010-11-26 09:14:26 51°26.732 2°44.833 13.7781 0.016069 0.097283 -0.408559
2010-11-26 09:14:31 51°26.742 2°44.853 13.7601 0.016069 0.09729 -0.443383
2010-11-26 09:14:35 51°26.751 2°44.869 13.7685 0.016069 0.097288 -0.408559
2010-11-26 09:14:41 51°26.764 2°44.893 13.7804 0.016069 0.097298 -0.443383
2010-11-26 09:14:46 51°26.774 2°44.916 13.7664 0.016069 0.097296 -0.408559
2010-11-26 09:14:51 51°26.785 2°44.936 13.7918 0.016069 0.097287 -0.408559
2010-11-26 09:14:55 51°26.794 2°44.952 13.7725 0.016069 0.097287 -0.408559
2010-11-26 09:15:00 51°26.803 2°44.975 13.7718 0.016069 0.097287 -0.373735
2010-11-26 09:15:06 51°26.815 2°45 13.7793 0.016069 0.097295 -0.408559
2010-11-26 09:15:11 51°26.823 2°45.023 13.7818 0.016069 0.097299 -0.408559
2010-11-26 09:15:15 51°26.83 2°45.041 13.7816 0.016069 0.09729 -0.373735
2010-11-26 09:15:21 51°26.84 2°45.068 13.7752 0.016069 0.097282 -0.408559
2010-11-26 09:15:25 51°26.847 2°45.086 13.7751 0.016069 0.097282 -0.408559
2010-11-26 09:15:31 51°26.856 2°45.114 13.7968 0.016069 0.097275 -0.408559
2010-11-26 09:15:35 51°26.864 2°45.132 13.7544 0.016069 0.097287 -0.408559
2010-11-26 09:15:40 51°26.871 2°45.156 13.7978 0.016069 0.097287 -0.443383
2010-11-26 09:15:46 51°26.883 2°45.182 13.776 0.016069 0.097291 -0.408559
2010-11-26 09:15:51 51°26.891 2°45.206 13.8048 0.016069 0.097285 -0.408559
2010-11-26 09:15:55 51°26.9 2°45.222 13.7918 0.016069 0.097285 -0.408559
2010-11-26 09:16:00 51°26.907 2°45.247 13.8028 0.016069 0.097322 -0.373735
2010-11-26 09:16:06 51°26.919 2°45.273 13.8117 0.016069 0.097309 -0.408559
2010-11-26 09:16:11 51°26.926 2°45.298 13.7616 0.016069 0.097301 -0.408559
2010-11-26 09:16:15 51°26.934 2°45.315 13.7983 0.016069 0.097293 -0.443383
2010-11-26 09:16:20 51°26.943 2°45.337 13.8132 0.016069 0.097298 -0.373735
2010-11-26 09:16:26 51°26.955 2°45.363 13.8096 0.016069 0.097298 -0.373735
2010-11-26 09:16:31 51°26.962 2°45.387 13.8008 0.016069 0.09729 -0.443383
2010-11-26 09:16:35 51°26.969 2°45.405 13.8127 0.016069 0.097287 -0.408559
2010-11-26 09:16:41 51°26.979 2°45.434 13.8032 0.016069 0.097293 -0.408559
2010-11-26 09:16:46 51°26.988 2°45.456 13.8151 0.016069 0.097299 -0.408559
2010-11-26 09:16:51 51°26.996 2°45.48 13.8037 0.016069 0.097301 -0.408559
2010-11-26 09:16:55 51°27.002 2°45.499 13.813 0.016069 0.097301 -0.408559
2010-11-26 09:17:00 51°27.01 2°45.523 13.8103 0.016069 0.097304 -0.408559
2010-11-26 09:17:06 51°27.02 2°45.551 13.8042 0.016069 0.097309 -0.408559
2010-11-26 09:17:11 51°27.026 2°45.576 13.7964 0.016069 0.097309 -0.443383
2010-11-26 09:17:15 51°27.033 2°45.594 13.8382 0.016069 0.097314 -0.408559
2010-11-26 09:17:20 51°27.042 2°45.618 13.7935 0.016069 0.097306 -0.408559
2010-11-26 09:17:26 51°27.051 2°45.646 13.8408 0.016069 0.097306 -0.408559
2010-11-26 09:17:31 51°27.059 2°45.67 13.8064 0.016069 0.097312 -0.408559
2010-11-26 09:17:35 51°27.066 2°45.689 13.8397 0.016069 0.097301 -0.408559
2010-11-26 09:17:40 51°27.075 2°45.712 13.7964 0.016069 0.097319 -0.443383
2010-11-26 09:17:46 51°27.085 2°45.74 13.8466 0.016069 0.097312 -0.443383
2010-11-26 09:17:51 51°27.093 2°45.763 13.7972 0.016069 0.097308 -0.408559
2010-11-26 09:17:55 51°27.099 2°45.783 13.8342 0.016069 0.097308 -0.408559
2010-11-26 09:18:00 51°27.109 2°45.804 13.8295 0.016069 0.097306 -0.408559
2010-11-26 09:18:06 51°27.118 2°45.833 13.8389 0.016069 0.09729 -0.408559
2010-11-26 09:18:11 51°27.127 2°45.856 13.8356 0.016069 0.09729 -0.408559
2010-11-26 09:18:15 51°27.134 2°45.875 13.8324 0.016069 0.097283 -0.408559
2010-11-26 09:18:20 51°27.143 2°45.898 13.8508 0.016069 0.097295 -0.408559
2010-11-26 09:18:26 51°27.153 2°45.926 13.8109 0.016069 0.097295 -0.408559
2010-11-26 09:18:31 51°27.162 2°45.949 13.8587 0.016069 0.097282 -0.408559
2010-11-26 09:18:35 51°27.17 2°45.966 13.8292 0.016069 0.097308 -0.408559
2010-11-26 09:18:41 51°27.179 2°45.996 13.8378 0.016069 0.09729 -0.408559
2010-11-26 09:18:46 51°27.189 2°46.017 13.8414 0.016069 0.097304 -0.408559
2010-11-26 09:18:51 51°27.196 2°46.042 13.845 0.016069 0.097291 -0.443383
2010-11-26 09:18:55 51°27.205 2°46.059 13.8594 0.016069 0.097291 -0.443383
2010-11-26 09:19:01 51°27.215 2°46.088 13.8391 0.016069 0.097287 -0.408559
2010-11-26 09:19:06 51°27.224 2°46.11 13.8609 0.016069 0.097274 -0.443383
2010-11-26 09:19:11 51°27.232 2°46.134 13.8469 0.016069 0.097282 -0.443383
2010-11-26 09:19:15 51°27.239 2°46.153 13.8647 0.016069 0.097282 -0.408559
2010-11-26 09:19:20 51°27.249 2°46.176 13.8495 0.016069 0.097287 -0.408559
2010-11-26 09:19:26 51°27.259 2°46.204 13.8647 0.016069 0.097287 -0.408559
2010-11-26 09:19:31 51°27.268 2°46.227 13.8509 0.016069 0.097283 -0.408559
2010-11-26 09:19:35 51°27.274 2°46.247 13.8716 0.016069 0.097277 -0.408559
2010-11-26 09:19:40 51°27.284 2°46.269 13.8528 0.016069 0.097288 -0.408559
2010-11-26 09:19:46 51°27.293 2°46.298 13.8682 0.016069 0.097274 -0.408559
2010-11-26 09:19:51 51°27.303 2°46.32 13.8743 0.016069 0.097285 -0.408559
2010-11-26 09:19:55 51°27.31 2°46.339 13.8699 0.016069 0.097285 -0.408559
2010-11-26 09:20:00 51°27.319 2°46.362 13.8646 0.016069 0.097283 -0.408559
2010-11-26 09:20:05 51°27.327 2°46.386 13.8732 0.016069 0.097285 -0.408559
2010-11-26 09:20:11 51°27.339 2°46.412 13.8908 0.016069 0.097295 -0.443383
2010-11-26 09:20:15 51°27.345 2°46.431 13.8613 0.016069 0.097296 -0.408559
2010-11-26 09:20:20 51°27.354 2°46.454 13.891 0.016069 0.097301 -0.408559
2010-11-26 09:20:26 51°27.365 2°46.481 13.8748 0.016069 0.097301 -0.408559
2010-11-26 09:20:31 51°27.374 2°46.504 13.89 0.016069 0.097291 -0.408559
2010-11-26 09:20:35 51°27.382 2°46.522 13.8801 0.016069 0.097293 -0.408559
2010-11-26 09:20:40 51°27.39 2°46.547 13.8831 0.016069 0.097275 -0.443383
2010-11-26 09:20:46 51°27.401 2°46.573 13.8935 0.016069 0.097275 -0.373735
2010-11-26 09:20:51 51°27.411 2°46.596 13.8784 0.016069 0.097269 -0.408559
2010-11-26 09:20:55 51°27.417 2°46.615 13.8858 0.016069 0.097269 -0.408559
2010-11-26 09:21:00 51°27.427 2°46.638 13.8974 0.016069 0.09727 -0.408559
2010-11-26 09:21:06 51°27.437 2°46.666 13.8878 0.016069 0.097272 -0.408559
2010-11-26 09:21:11 51°27.447 2°46.689 13.9013 0.016069 0.097267 -0.408559
2010-11-26 09:21:15 51°27.455 2°46.707 13.8875 0.016069 0.097269 -0.408559
2010-11-26 09:21:20 51°27.463 2°46.73 13.8948 0.016069 0.097266 -0.408559
2010-11-26 09:21:26 51°27.473 2°46.758 13.8882 0.016069 0.097266 -0.408559
2010-11-26 09:21:31 51°27.483 2°46.781 13.9135 0.016069 0.097262 -0.408559
2010-11-26 09:21:35 51°27.491 2°46.798 13.8793 0.016069 0.09728 -0.408559
2010-11-26 09:21:41 51°27.5 2°46.827 13.9122 0.016069 0.097261 -0.408559
2010-11-26 09:21:46 51°27.51 2°46.848 13.9097 0.016069 0.09727 -0.373735
2010-11-26 09:21:51 51°27.52 2°46.87 13.9135 0.016069 0.097266 -0.408559
2010-11-26 09:21:55 51°27.527 2°46.888 13.9136 0.016069 0.097266 -0.408559
2010-11-26 09:22:00 51°27.536 2°46.91 13.9244 0.016069 0.097262 -0.408559